GFSFLT2_250_spd_003.txt.gz
Wind_Speed
85 83 80 64 39 29 16 18 18 18 18 19 21 22 23 24 24 26 27 26 26 28 27 28 28 29 27 18 18 17 20 27
79 71 50 37 20 19 17 19 22 21 21 22 25 25 23 22 23 25 26 25 24 23 23 25 25 26 25 23 16 16 15 21
54 35 29 20 19 18 20 22 25 24 23 24 24 24 25 26 26 27 27 26 25 23 22 22 23 23 22 21 21 15 12 15
30 24 22 19 20 25 27 29 28 30 31 31 31 31 30 30 31 30 30 29 28 26 24 24 24 24 24 21 20 19 15 12
22 23 21 22 24 24 26 28 29 31 32 34 35 35 35 34 34 34 34 33 31 31 28 26 27 26 25 25 22 20 21 17
24 26 28 28 32 34 33 35 37 39 40 40 41 41 41 40 39 38 38 37 36 34 32 31 28 28 28 28 28 26 24 25
29 31 33 34 40 43 41 44 45 47 46 45 44 44 43 44 44 44 45 42 39 37 36 37 37 36 35 33 32 32 31 30
33 35 39 41 45 45 47 48 47 47 46 44 44 44 46 47 48 49 47 47 46 45 45 45 45 45 45 44 42 40 39 38
38 42 42 44 46 46 46 48 49 49 48 46 46 47 48 48 49 51 52 53 54 53 53 53 54 53 53 51 50 48 47 48
41 44 45 45 46 46 45 47 47 45 46 48 50 51 53 54 54 56 56 58 59 60 61 60 60 59 59 60 59 59 58 55
40 42 41 43 47 45 49 51 48 49 51 54 55 56 56 56 59 61 62 63 65 66 65 62 60 62 63 63 61 61 63 63
41 39 43 45 46 50 48 48 52 54 55 56 56 58 60 62 64 66 67 67 66 67 68 69 68 72 71 66 69 69 69 69
46 44 49 47 43 47 53 54 55 56 57 58 63 65 67 67 67 69 70 70 70 72 74 73 73 74 73 74 73 73 74 79
46 42 45 49 51 54 57 57 59 62 65 65 66 68 72 74 75 77 79 81 84 85 85 83 82 84 86 86 85 84 87 86
45 50 52 54 55 56 59 62 64 69 71 71 74 74 75 77 80 81 83 87 88 88 89 90 90 90 98 101 99 92 99 98
54 56 56 56 60 61 65 65 67 70 69 71 76 80 83 88 91 93 96 98 99 99 102 101 105 102 105 110 110 109 109 109
57 56 59 63 66 68 67 68 74 75 77 80 85 90 93 95 98 102 106 107 107 110 112 113 114 114 115 116 116 117 117 111
61 63 64 68 68 67 72 77 79 83 87 91 95 100 103 107 110 114 116 118 119 122 123 124 121 121 123 124 118 117 116 115
66 66 67 67 68 75 80 84 88 92 95 100 103 107 111 114 117 121 124 127 129 130 131 130 126 122 117 113 109 103 100 100
67 69 70 72 77 82 86 91 95 98 102 105 111 115 118 122 126 129 134 135 134 133 133 128 122 112 103 96 96 98 95 93

GFSFLT2_250_spd_006.txt.gz
Wind_Speed
93 90 88 86 81 71 61 38 29 23 20 22 24 26 27 27 30 32 33 31 30 30 29 29 27 27 28 27 26 24 12 5
97 87 81 75 68 54 36 23 20 22 21 22 25 27 31 32 32 34 34 33 32 30 29 28 29 29 27 26 24 22 20 6
84 72 66 58 47 34 24 24 26 28 27 27 30 31 31 36 35 35 33 33 30 30 30 28 26 26 27 25 25 22 17 14
68 64 51 44 36 30 27 31 32 35 34 34 35 38 40 39 40 37 34 35 36 35 32 30 29 26 26 26 23 21 20 14
46 45 39 31 32 33 36 38 39 41 42 43 43 44 44 41 40 39 41 40 36 35 35 33 29 29 27 27 27 24 22 20
38 34 34 34 37 39 40 42 43 48 52 51 49 48 44 46 45 45 45 43 43 42 40 38 38 37 37 35 33 34 32 28
35 35 40 40 44 43 45 47 49 52 49 50 51 51 50 48 48 47 47 47 47 45 44 43 42 41 41 41 42 42 40 36
35 39 41 47 51 49 50 52 54 51 49 49 51 51 50 48 47 47 49 49 49 50 50 50 49 49 49 49 47 44 44 45
40 40 47 52 57 55 54 53 53 49 50 52 52 48 49 51 51 52 51 50 51 53 54 56 56 57 57 55 53 53 50 46
7 41 49 54 59 57 50 49 51 52 53 50 52 55 55 56 55 55 55 56 58 60 60 58 58 58 58 56 55 55 56 55
34 49 55 56 53 48 52 54 55 53 54 54 59 57 58 59 61 61 60 59 60 61 60 61 62 64 64 63 67 65 65 64
32 41 49 49 50 53 51 51 55 58 60 56 61 62 63 63 64 66 66 65 65 66 66 67 70 70 71 73 74 75 73 71
39 44 50 47 45 51 58 60 60 58 60 62 65 67 68 67 68 69 69 72 74 75 75 77 78 81 81 81 80 81 81 81
44 45 50 52 54 58 60 62 63 64 66 68 68 67 69 74 75 75 78 80 82 85 87 87 86 89 91 92 92 89 91 93
49 49 51 57 60 61 64 66 68 69 71 72 68 74 78 81 82 84 88 91 94 96 96 98 97 97 101 103 101 99 100 101
53 53 56 64 65 63 66 70 72 74 74 74 78 83 86 89 93 94 96 98 102 104 107 109 110 109 108 111 115 117 115 109
56 57 62 66 67 69 71 71 72 76 79 81 84 90 94 97 98 103 104 106 110 114 114 117 120 120 122 123 123 119 117 111
60 65 67 68 70 73 75 78 83 86 89 91 94 98 101 105 109 112 116 117 120 121 124 125 127 130 131 125 121 114 106 104
65 69 72 74 73 75 81 85 89 92 94 98 102 104 110 115 118 122 124 126 128 129 133 135 133 130 127 117 108 102 99 95
64 71 75 77 80 81 84 89 94 98 102 107 109 114 119 122 125 130 132 132 133 134 133 127 120 113 110 104 99 98 96 96

GFSFLT2_250_spd_009.txt.gz
Wind_Speed
98 98 101 103 99 83 70 67 56 47 37 33 28 30 28 30 32 33 34 37 37 33 28 27 27 26 24 22 20 17 21 18
98 102 100 96 77 67 55 46 40 35 32 31 33 33 33 34 37 40 41 41 40 36 33 32 29 29 26 24 21 18 13 15
99 99 88 77 67 56 49 42 36 35 37 39 40 41 42 44 44 45 46 46 44 40 35 33 31 28 25 25 25 22 18 12
90 77 70 59 54 48 44 42 36 39 38 42 46 49 51 55 48 48 46 46 45 41 40 35 33 31 29 24 23 25 24 20
66 57 51 57 46 44 38 40 42 44 44 48 48 52 53 55 52 49 49 49 46 44 39 38 37 34 32 29 28 25 24 25
52 54 50 44 42 47 46 47 48 50 51 51 54 56 58 56 51 49 48 47 46 44 44 45 43 40 38 35 33 32 33 31
48 36 37 44 45 49 46 43 47 49 54 57 59 58 55 54 53 50 47 49 50 50 50 50 47 45 43 44 42 42 41 40
20 29 41 45 43 38 45 51 51 55 54 56 54 54 55 55 52 51 52 53 53 53 51 52 50 49 48 47 48 47 46 46
12 28 42 41 46 40 49 59 60 51 47 52 57 54 52 55 55 57 56 56 56 57 56 54 52 51 50 50 48 48 49 50
24 35 44 58 56 52 56 58 54 56 55 52 55 59 62 62 60 60 62 62 60 59 59 57 57 57 55 54 53 54 55 56
28 40 49 52 52 52 56 59 57 57 54 58 61 59 61 62 64 67 67 65 64 64 64 65 65 66 65 62 62 61 61 63
25 35 43 44 49 57 60 60 56 56 62 64 64 64 66 69 70 69 70 68 66 69 71 73 72 72 72 72 73 74 75 75
35 40 44 47 51 58 61 58 59 61 66 66 65 66 68 71 75 76 74 74 76 79 79 80 82 83 82 82 82 84 84 85
40 46 51 54 57 60 60 63 65 69 70 70 71 73 75 74 76 79 80 81 85 87 88 87 89 94 94 93 90 90 93 93
49 52 54 56 59 59 62 66 68 70 73 75 78 81 82 85 87 87 88 89 92 95 98 100 101 104 107 107 104 101 99 99
51 54 59 60 56 60 64 67 70 75 77 80 82 85 89 93 96 98 100 101 103 105 108 112 114 115 116 116 117 116 111 104
56 59 62 61 61 64 67 72 76 80 83 85 88 92 96 100 103 105 109 113 117 119 121 124 123 123 122 122 124 121 117 108
58 58 60 63 67 69 72 80 85 88 91 93 96 100 106 110 112 114 118 122 124 125 125 124 123 122 123 122 115 112 109 106
60 62 65 68 70 71 78 84 88 91 94 97 102 108 112 115 122 126 129 132 129 129 127 124 119 116 112 109 104 101 97 96
56 61 67 73 78 83 88 93 97 101 106 108 111 115 122 128 128 131 134 132 129 125 121 115 109 105 101 100 96 95 91 90

GFSFLT2_250_spd_012.txt.gz
Wind_Speed
94 94 93 94 98 98 99 96 90 73 56 53 50 42 37 37 37 40 43 44 45 48 49 50 47 40 38 34 30 23 25 25
94 96 97 97 97 94 90 84 63 50 54 45 45 42 43 44 45 45 50 53 51 52 52 50 46 41 40 36 32 26 22 22
94 94 93 94 92 88 79 57 55 51 44 46 46 44 44 45 48 46 48 52 52 49 47 46 43 42 38 36 33 29 26 22
91 91 90 91 82 70 54 48 46 46 44 48 48 48 49 51 52 51 54 55 52 45 44 42 41 41 40 38 38 33 30 28
91 89 83 85 68 52 47 47 46 47 45 51 50 50 51 55 55 56 53 50 48 49 44 43 44 44 44 46 44 40 37 33
84 75 70 55 51 45 43 46 52 49 47 44 45 50 55 54 49 48 49 49 49 48 47 49 49 49 47 45 44 44 43 42
59 60 59 43 42 45 45 45 50 47 45 48 52 56 56 51 49 48 48 48 48 50 52 51 50 52 52 52 52 50 49 48
60 52 47 46 46 48 48 46 46 48 53 55 58 60 60 60 50 49 55 54 52 53 53 54 57 57 58 56 55 55 55 54
55 48 48 51 54 53 51 47 52 52 57 57 56 62 60 53 56 57 58 57 58 56 57 59 59 60 59 59 56 57 59 59
41 44 50 51 56 59 61 60 58 55 60 59 62 61 59 59 62 64 65 63 61 62 62 63 63 63 63 63 62 63 65 65
35 40 53 56 58 62 62 59 56 59 61 63 63 61 62 63 67 68 67 69 71 70 69 67 67 68 68 68 68 69 71 72
37 46 53 54 50 55 58 58 60 63 66 68 65 65 65 68 70 71 71 72 75 76 76 76 76 77 77 77 78 80 82 82
46 50 51 52 53 56 58 61 64 67 68 66 65 67 69 71 74 76 78 80 82 83 82 84 86 85 83 84 83 86 89 92
51 50 48 52 55 58 62 65 68 72 69 66 70 73 76 79 82 85 87 88 88 89 91 92 93 95 94 95 92 94 97 97
46 49 53 54 57 61 65 70 70 69 72 75 78 81 84 87 91 92 92 92 93 95 98 101 103 105 105 107 108 107 106 109
49 53 56 58 62 65 65 67 69 71 74 80 83 87 90 95 98 99 102 104 106 108 110 114 117 117 118 119 121 118 116 113
53 54 57 59 60 61 63 66 69 74 80 86 92 95 98 102 106 108 110 114 117 119 122 125 127 126 126 128 129 122 115 114
53 55 58 59 62 64 66 71 76 81 86 91 95 100 103 108 112 114 118 123 128 131 132 133 132 131 126 122 117 109 103 102
56 56 59 63 65 69 72 77 81 85 91 96 101 106 110 115 119 123 127 133 136 134 134 132 129 125 119 114 110 105 98 93
58 61 65 69 73 76 80 83 87 92 97 102 107 113 119 122 124 129 134 134 132 130 128 124 120 114 108 103 98 96 92 87

GFSFLT2_250_spd_015.txt.gz
Wind_Speed
93 89 88 94 92 89 93 93 93 98 94 91 85 71 60 49 48 47 47 48 48 49 54 55 54 55 49 43 40 41 38 35
87 86 89 89 95 93 93 95 94 96 93 78 68 54 55 46 48 45 44 46 51 54 53 56 55 49 45 41 38 40 39 36
87 88 91 90 89 92 95 95 93 85 77 67 62 52 53 50 51 49 47 46 53 56 53 50 48 46 42 36 37 39 38 39
93 91 87 89 91 89 84 88 79 71 64 61 56 55 56 54 52 45 49 50 51 48 47 47 46 45 43 42 40 40 42 41
82 87 89 90 88 75 75 73 67 61 64 56 56 54 52 51 47 51 53 53 56 52 51 50 47 47 48 49 48 44 42 43
87 86 83 87 80 81 71 59 59 61 57 58 54 53 50 53 53 57 61 61 61 51 47 52 55 52 52 50 48 47 49 50
83 91 88 84 83 74 68 61 59 57 60 59 59 57 55 59 60 59 58 61 60 53 53 54 56 57 57 56 55 55 56 55
81 81 85 70 63 56 57 57 57 58 62 62 59 59 63 64 62 61 59 59 59 56 56 57 58 59 60 60 61 63 63 62
75 70 65 54 53 55 56 57 61 61 64 64 64 69 72 71 70 67 64 61 60 60 61 61 60 61 63 64 66 67 67 65
56 49 45 48 49 42 49 55 56 63 66 68 68 67 67 67 72 71 69 62 63 64 64 64 64 65 67 70 71 72 72 69
36 43 37 51 49 55 68 73 68 65 63 64 65 66 68 71 73 74 72 69 70 71 72 71 71 72 74 76 77 78 78 77
36 43 45 54 56 64 69 73 68 71 68 67 69 70 71 74 76 74 73 74 75 77 78 80 81 82 82 81 82 84 85 85
40 46 55 59 61 65 68 74 77 74 71 72 74 75 76 76 75 76 76 77 80 81 82 85 89 91 91 90 89 90 91 91
49 54 57 59 64 69 72 72 73 73 75 77 77 76 77 79 79 79 81 84 88 89 91 92 95 98 99 98 97 98 101 102
56 56 56 58 58 62 66 69 72 74 74 75 77 80 81 82 85 89 91 93 96 100 102 104 105 108 110 110 109 107 107 112
49 52 53 54 58 62 65 69 72 73 75 79 80 81 86 90 93 96 100 104 109 112 114 117 117 118 119 121 122 122 120 116
50 51 54 58 61 65 68 70 72 77 79 82 84 87 91 97 101 106 110 111 115 118 120 120 121 122 121 119 119 120 118 115
51 53 56 60 62 65 69 72 74 77 79 83 88 94 98 103 109 113 116 119 122 123 124 125 124 123 121 120 117 115 114 111
53 55 58 61 64 67 70 73 76 80 85 91 94 98 102 108 113 116 121 124 125 125 124 123 123 122 122 118 113 107 102 98
54 56 59 62 66 69 72 75 79 83 88 94 99 105 109 115 120 124 125 125 125 123 123 122 121 120 118 111 102 97 92 89

GFSFLT2_250_spd_018.txt.gz
Wind_Speed
75 78 76 82 85 88 85 90 93 95 98 93 95 101 91 92 82 74 68 63 57 52 51 47 47 51 49 49 44 43 41 34
80 86 87 87 92 90 89 94 93 85 88 98 94 92 86 81 74 73 66 60 56 54 47 49 51 50 52 47 45 42 40 38
86 87 88 89 89 89 89 89 93 94 95 92 85 83 76 68 69 65 59 56 55 48 50 51 53 55 56 52 46 43 42 41
90 88 90 93 92 93 89 84 93 94 86 76 78 74 69 61 67 66 58 59 52 57 50 56 55 53 51 48 47 47 46 43
85 86 82 86 89 88 87 92 81 77 74 71 70 66 67 68 64 64 63 60 56 55 57 53 58 58 51 48 47 47 48 47
83 86 87 80 83 84 81 85 77 67 66 64 64 63 64 63 63 64 64 60 63 63 60 63 61 59 56 53 52 52 49 49
84 84 83 84 79 73 64 65 61 65 63 60 59 65 69 67 69 68 67 68 68 69 72 69 69 64 58 58 59 59 57 54
75 72 77 77 79 67 61 54 58 63 65 62 61 65 63 65 67 69 68 65 66 66 65 69 70 69 64 62 63 64 62 57
79 82 81 77 72 58 59 59 63 71 70 69 59 63 68 70 69 71 72 71 68 68 70 71 72 71 68 68 68 68 67 64
77 77 70 58 50 48 48 55 58 59 66 68 65 71 74 73 75 77 74 72 71 72 75 76 75 71 71 73 72 74 73 73
59 52 44 40 50 37 43 67 67 76 75 75 75 77 77 78 81 79 76 78 80 80 80 78 76 75 73 73 77 79 79 81
43 40 35 33 62 57 70 70 69 71 75 76 76 84 85 83 79 79 80 82 82 81 81 80 80 79 81 83 87 89 88 89
39 45 49 53 59 70 68 68 72 76 77 79 84 84 81 80 81 81 82 81 83 84 85 87 89 91 91 91 93 95 98 101
40 45 51 56 60 64 70 74 77 78 78 81 81 80 81 82 83 83 85 88 87 88 89 90 94 96 98 99 101 103 107 108
52 56 59 61 66 67 67 69 70 73 75 76 78 81 82 84 86 88 90 92 91 92 96 98 101 105 110 112 112 111 112 111
53 54 56 60 63 64 65 67 69 71 74 76 79 81 84 87 89 92 93 95 98 102 106 109 112 115 118 120 123 124 122 116
44 48 52 56 58 61 64 67 70 73 75 77 80 83 85 86 89 93 98 103 107 111 113 117 120 123 126 126 127 126 125 123
49 51 53 56 59 62 64 67 69 72 75 77 78 81 85 90 95 100 104 108 113 116 120 126 128 128 126 125 123 119 119 119
53 55 57 60 61 62 64 67 70 72 73 77 82 87 91 96 101 107 113 118 122 121 124 126 122 122 121 119 120 118 115 111
52 55 58 59 60 62 64 67 70 73 77 82 87 92 98 104 110 117 120 122 122 124 124 120 118 118 117 113 111 105 100 94

GFSFLT2_250_spd_021.txt.gz
Wind_Speed
80 81 79 75 75 84 81 78 91 88 91 91 94 96 100 99 90 94 85 82 73 69 61 62 56 55 51 47 44 40 40 41
84 78 78 78 73 78 87 84 86 93 91 90 96 92 85 88 91 80 78 74 70 63 59 56 55 56 50 46 47 44 46 40
73 78 77 76 74 78 82 87 87 90 84 90 90 87 85 79 75 77 69 68 69 61 61 58 58 53 50 47 46 50 49 42
71 71 69 68 73 77 87 88 88 86 92 90 76 81 82 71 72 72 69 67 62 59 59 61 59 57 54 53 50 51 53 49
69 68 74 79 88 87 85 91 91 92 88 80 77 77 77 75 71 67 66 64 61 60 58 58 58 56 53 51 51 50 52 51
65 70 79 82 86 91 85 85 90 85 87 81 78 78 73 68 64 65 64 65 61 61 61 60 62 64 62 57 57 57 55 53
71 76 76 75 80 83 87 84 84 85 84 78 74 72 68 64 64 63 63 62 64 67 65 68 70 69 66 65 63 61 61 61
74 74 72 74 79 80 82 81 79 79 75 69 71 70 69 66 67 70 69 69 71 72 72 71 71 71 70 70 69 68 67 65
68 69 71 76 77 73 72 63 64 66 64 61 72 73 69 73 74 76 77 77 75 79 74 74 73 73 73 73 72 70 68 67
64 66 67 68 64 59 51 52 59 59 63 63 69 71 72 78 84 79 82 84 86 84 81 77 76 75 75 75 74 74 74 73
60 56 50 51 48 36 47 53 58 59 62 67 68 73 84 90 87 85 87 89 89 89 83 79 79 78 78 79 81 81 80 79
47 44 43 25 51 47 55 56 58 61 65 67 73 84 88 95 92 94 92 88 87 83 84 83 83 83 85 85 85 84 85 85
40 37 41 40 52 53 57 63 70 73 76 81 85 89 93 95 94 90 88 85 86 86 87 88 89 89 88 87 88 89 91 92
40 40 44 45 54 58 61 65 69 74 79 84 86 88 88 88 85 85 88 89 89 89 89 89 89 89 91 94 95 99 102 105
39 42 47 49 54 60 64 66 69 72 75 77 78 79 81 84 85 85 86 88 90 90 91 94 98 102 105 108 108 110 113 116
39 41 45 48 52 55 58 62 66 69 72 74 76 77 79 81 83 85 87 88 90 93 97 103 108 112 115 118 118 120 120 117
40 42 45 48 51 54 58 61 64 66 68 71 73 75 78 79 81 83 86 90 95 101 107 111 113 114 117 119 120 119 123 125
46 48 51 53 56 59 61 63 64 66 68 71 73 75 76 76 80 87 92 98 104 110 113 115 115 117 119 116 114 117 120 121
51 54 56 58 60 61 63 65 67 68 69 70 70 72 78 83 89 94 99 104 108 112 114 116 115 114 114 115 117 119 118 114
51 54 55 57 58 59 60 60 62 64 67 70 75 80 85 88 93 101 106 112 112 113 114 114 111 109 111 111 111 109 104 98

GFSFLT2_250_spd_024.txt.gz
Wind_Speed
75 70 76 80 77 75 81 80 78 80 82 89 90 77 81 86 91 89 87 86 79 74 70 69 64 62 54 53 52 48 43 42
75 73 72 76 81 76 72 79 85 82 84 83 77 80 85 96 90 82 83 73 72 71 70 64 61 59 54 52 51 48 45 44
71 71 74 80 72 68 80 78 75 75 74 78 90 91 92 91 83 83 80 75 71 66 63 61 59 59 54 50 47 44 44 44
49 53 56 59 61 72 66 67 70 75 83 81 83 85 86 81 85 87 76 82 73 63 60 58 59 55 53 52 51 48 48 50
65 63 56 55 65 62 69 71 73 79 84 89 89 87 82 86 84 81 78 76 70 62 59 56 57 56 59 56 54 57 57 47
62 64 61 65 66 68 70 77 81 85 87 85 85 85 83 82 81 82 71 65 63 55 63 63 67 63 61 62 63 61 58 54
66 66 71 74 78 79 80 81 85 84 85 85 84 85 84 81 75 70 66 60 62 68 68 73 74 71 71 67 64 61 60 59
66 69 73 75 73 74 79 79 81 81 81 78 77 75 76 75 73 70 72 72 70 72 74 80 81 82 81 81 75 71 69 67
67 69 71 73 74 72 72 74 76 76 72 69 64 66 68 71 73 73 73 75 78 81 84 84 87 90 91 83 80 76 71 70
61 63 67 67 69 69 60 58 56 57 55 60 62 61 68 75 74 69 70 72 80 81 87 94 97 94 86 84 80 79 78 74
58 57 59 58 55 46 48 49 51 56 55 57 61 62 67 73 74 78 81 85 88 92 98 100 93 88 85 84 83 83 82 81
52 51 51 47 46 47 46 54 50 55 58 64 71 76 83 85 90 93 96 98 99 98 95 91 88 87 87 85 85 84 80 80
47 46 44 43 44 50 57 58 66 65 67 71 77 81 84 89 93 95 93 91 90 88 91 89 90 89 86 83 83 84 83 85
37 36 38 40 42 48 52 56 59 66 72 77 81 84 86 84 83 85 86 88 87 88 89 89 89 86 85 88 90 94 99 98
36 37 39 41 43 46 50 55 59 63 66 69 73 76 79 81 83 84 85 85 87 87 87 86 89 93 94 98 102 106 108 113
33 36 39 43 47 51 54 58 61 66 69 72 75 77 79 81 82 83 84 84 82 83 88 93 95 100 106 109 111 115 119 118
37 41 44 47 51 55 59 62 66 68 71 73 74 75 75 75 76 76 78 81 85 90 94 97 104 109 114 118 121 121 121 117
40 44 48 52 55 58 61 64 65 66 67 68 67 67 67 69 73 78 83 87 91 95 100 106 110 115 118 120 119 114 114 117
41 44 46 49 51 54 57 59 62 64 64 65 66 68 71 76 81 84 86 90 96 101 106 110 112 113 114 111 110 110 110 111
42 45 47 50 52 54 56 59 61 63 64 66 68 71 75 80 84 88 92 99 103 107 109 109 110 110 110 106 104 104 103 100

GFSFLT2_250_spd_027.txt.gz
Wind_Speed
75 73 68 58 65 63 65 68 64 66 67 71 74 73 80 81 79 73 69 84 78 81 81 78 77 74 62 63 59 58 53 50
42 50 51 58 60 61 74 76 75 79 82 89 81 82 86 80 77 78 76 83 83 82 84 78 76 64 59 54 52 53 51 48
64 67 74 77 82 81 82 77 79 76 75 88 79 78 74 73 79 85 87 87 86 89 79 77 64 57 54 51 48 49 49 52
74 80 78 86 82 78 81 79 73 80 75 67 74 77 82 86 92 92 87 82 86 80 75 66 60 55 54 50 54 53 50 50
83 78 76 75 75 71 78 74 71 73 78 81 84 85 91 92 90 86 84 84 75 70 64 61 60 55 54 59 60 59 61 54
78 82 78 74 67 68 68 73 76 78 84 87 90 84 84 86 81 75 73 73 73 71 62 66 68 63 61 65 65 63 60 52
71 71 71 75 73 74 74 78 82 87 88 90 91 89 87 83 81 82 79 72 67 66 70 70 65 64 74 78 80 77 75 75
68 72 73 74 74 76 80 84 85 84 86 85 82 77 75 74 75 74 70 69 70 71 66 67 70 66 77 79 81 87 89 93
71 74 76 80 84 79 78 76 79 80 79 75 72 67 68 65 69 69 68 69 69 62 71 70 77 81 87 88 91 95 97 95
69 70 72 72 69 67 69 71 68 66 65 62 63 63 60 59 58 63 70 75 72 78 82 84 90 93 94 99 97 90 87 86
59 56 57 62 65 63 56 43 52 56 59 56 56 59 65 68 72 75 78 80 81 89 92 93 95 98 94 89 88 84 83 82
61 61 62 63 63 61 62 61 63 65 65 67 71 73 75 78 82 82 87 89 92 94 99 101 94 91 89 88 89 88 86 83
54 55 55 56 58 60 61 61 63 68 69 71 73 75 79 79 82 87 91 93 96 97 93 90 90 90 87 85 86 85 85 85
48 48 48 45 46 47 51 51 53 54 56 62 70 71 72 75 80 81 82 86 89 89 89 90 89 86 85 83 83 87 92 95
37 36 34 35 37 40 43 47 51 55 59 64 69 72 76 79 82 86 88 88 88 87 83 80 82 85 90 91 93 95 98 104
27 29 35 39 42 46 50 54 57 62 64 67 69 73 76 77 77 79 79 77 74 76 81 83 87 91 96 101 105 108 111 110
31 35 39 42 45 48 49 50 51 53 57 60 64 65 67 69 69 69 69 72 76 82 86 92 98 102 104 107 111 113 115 116
34 38 41 43 46 49 51 51 52 55 59 62 64 66 65 63 65 68 72 77 82 90 94 98 101 105 110 110 110 111 111 108
33 35 38 42 46 50 54 55 58 59 61 60 62 64 64 64 69 74 79 85 92 97 99 102 106 108 106 106 106 109 109 106
36 40 44 47 50 54 56 57 59 61 63 67 68 67 67 70 76 81 88 94 99 103 104 108 108 105 104 103 106 103 98 96

GFSFLT2_250_spd_030.txt.gz
Wind_Speed
44 57 54 58 56 47 43 50 51 48 57 59 62 68 70 72 71 72 73 78 77 75 77 80 86 86 88 89 87 72 60 52
44 58 58 55 39 43 51 52 51 54 59 61 70 75 79 75 72 80 78 80 81 80 88 92 97 90 89 85 77 65 57 53
46 61 62 43 48 53 62 56 57 67 70 77 87 84 79 80 75 78 87 86 88 93 90 89 91 89 88 78 64 56 51 47
52 60 59 56 57 57 58 56 69 74 79 79 84 83 83 86 89 86 86 89 91 94 94 94 87 83 73 70 62 54 45 48
64 65 58 60 58 62 68 75 77 81 80 77 73 80 79 82 86 86 91 94 95 90 86 89 87 85 68 60 57 57 56 52
60 62 64 68 72 72 78 81 81 82 78 77 81 81 83 88 90 96 98 97 97 96 91 89 80 71 66 63 61 69 66 68
72 77 75 78 85 85 87 89 90 92 88 91 85 85 87 94 99 100 100 101 98 93 87 77 69 67 70 73 64 73 75 80
77 80 82 84 89 89 88 89 92 93 87 86 91 93 98 102 104 99 99 95 89 78 73 73 68 71 72 75 74 78 85 87
78 79 81 77 81 85 86 87 84 83 87 93 97 98 99 98 98 95 84 81 80 75 73 73 77 79 83 81 87 88 90 93
73 74 79 82 84 84 87 87 93 93 96 97 96 94 94 92 90 84 81 82 79 79 82 84 84 88 89 91 91 93 91 85
72 74 79 84 88 90 89 91 91 91 89 86 89 86 82 80 80 81 82 81 83 84 86 88 86 83 83 88 88 90 92 89
62 67 70 80 80 81 81 81 81 81 80 80 77 72 72 75 78 80 83 82 86 87 87 88 88 86 84 84 81 80 79 78
60 61 59 64 69 73 74 73 72 70 69 66 65 64 66 68 71 75 79 81 82 84 84 81 80 77 74 70 69 71 79 83
56 58 58 56 56 57 58 57 56 55 55 57 60 65 69 71 74 75 75 76 76 74 72 69 69 70 69 74 77 80 87 93
47 47 45 44 46 45 43 44 46 50 53 58 61 63 65 66 68 69 70 71 71 69 67 67 68 73 79 83 86 91 95 101
37 34 33 33 35 38 40 43 46 50 52 56 58 62 64 65 66 67 69 71 72 71 71 73 77 80 86 93 98 102 104 104
28 28 29 33 35 38 37 37 41 47 50 53 57 59 62 64 67 69 70 70 71 73 77 80 85 91 96 101 106 109 111 111
25 27 28 30 35 37 40 46 49 54 57 61 63 64 63 63 67 70 71 73 75 77 81 87 93 99 105 108 109 110 109 106
25 29 32 37 40 44 47 51 55 59 64 67 69 68 68 69 71 71 73 76 80 85 91 97 102 107 111 112 110 106 102 100
31 34 38 44 45 48 51 57 61 65 69 72 74 74 73 72 71 73 78 84 90 94 98 102 108 112 111 109 107 105 106 105

GFSFLT2_250_spd_033.txt.gz
Wind_Speed
50 51 57 61 66 65 61 58 52 52 50 46 48 54 53 55 59 67 66 65 75 73 75 77 75 79 90 89 92 92 99 97
55 53 51 51 52 51 51 54 53 44 42 46 47 53 58 64 64 67 75 78 85 76 78 88 88 93 91 96 99 100 100 86
48 46 49 51 57 57 61 50 40 43 47 50 52 58 55 62 69 76 77 80 81 90 87 83 86 90 96 102 101 97 84 83
47 52 56 53 57 58 58 44 46 46 56 61 65 68 68 73 79 81 83 80 80 87 88 88 92 95 97 95 94 92 83 72
49 51 61 59 63 64 55 54 51 60 61 66 69 69 76 73 77 83 85 81 86 90 93 94 95 95 95 94 88 81 73 63
50 54 63 64 58 50 49 55 58 59 61 69 73 75 82 88 92 91 92 94 102 100 95 97 99 99 94 91 82 79 74 71
45 56 57 51 57 59 59 66 66 69 74 81 86 92 88 92 94 95 94 96 96 97 100 100 102 95 90 83 78 76 77 76
55 60 60 61 68 69 68 76 75 79 87 90 92 89 93 94 93 96 99 101 106 103 104 101 103 91 84 80 76 79 81 81
66 68 69 70 79 83 86 86 84 87 91 87 86 88 91 97 103 102 96 97 97 98 101 102 92 87 84 82 83 84 83 82
67 74 72 76 75 75 80 84 85 87 90 93 95 96 95 96 100 99 98 98 98 98 93 87 87 86 86 86 87 88 88 85
70 71 74 81 77 75 75 79 81 83 85 89 91 86 94 94 93 97 97 95 90 83 80 83 86 88 87 87 84 81 79 74
74 76 76 79 75 78 80 82 88 92 90 93 95 91 88 93 92 87 83 79 77 80 80 80 80 80 79 77 75 70 70 69
44 62 70 67 68 71 79 83 86 83 83 84 81 81 82 79 73 75 77 77 76 77 77 75 75 77 78 77 76 75 75 77
49 50 57 64 66 66 69 73 75 77 74 72 69 65 64 65 66 67 69 72 73 74 74 76 79 81 80 77 75 76 79 82
47 54 58 58 61 64 67 67 64 60 57 56 54 52 53 56 59 61 64 68 71 72 74 76 76 77 78 77 76 78 81 88
50 54 57 55 55 53 51 49 47 49 47 47 48 50 53 57 61 67 70 73 76 77 78 75 76 76 79 83 87 89 91 94
43 45 45 43 42 42 42 42 40 41 45 47 51 55 62 67 71 74 78 80 80 79 78 78 79 84 89 93 97 101 104 104
36 36 39 39 39 40 40 41 41 44 47 51 55 61 65 70 75 79 84 85 80 79 77 80 86 90 95 100 105 106 106 102
34 35 37 39 41 42 43 44 45 49 52 58 63 69 72 76 80 84 87 81 79 80 84 90 96 101 105 108 110 106 102 101
33 35 39 43 46 47 49 53 55 58 63 67 72 78 80 82 87 90 86 81 82 88 93 97 101 106 110 109 109 107 106 104

GFSFLT2_250_spd_036.txt.gz
Wind_Speed
46 44 43 50 57 60 56 55 56 56 58 56 56 61 56 51 44 49 54 56 54 65 66 75 70 71 77 80 82 85 91 92
44 45 46 52 53 53 55 57 59 61 55 59 56 58 59 57 51 51 56 56 64 64 69 79 79 81 82 85 94 95 97 102
55 43 51 54 52 47 47 48 51 51 52 50 59 52 49 52 49 53 55 62 64 74 76 78 84 94 97 100 98 98 98 97
52 60 52 52 51 54 55 52 56 55 56 61 61 46 52 53 58 62 69 75 80 85 86 88 95 99 99 99 101 99 99 95
63 56 61 60 55 50 50 45 53 57 54 48 49 52 64 60 66 67 71 77 84 86 93 98 99 102 104 102 99 105 105 100
53 55 59 54 51 52 55 54 53 51 57 54 59 65 63 67 72 80 78 78 89 94 96 95 97 103 108 101 101 104 96 96
38 46 53 48 55 56 61 60 59 67 61 63 69 67 73 72 77 83 88 96 98 97 96 98 99 91 92 92 94 90 94 89
45 48 56 59 62 66 59 57 62 61 69 71 68 73 76 80 83 88 89 91 97 100 96 98 90 96 97 90 88 91 92 90
49 48 58 63 62 61 64 65 67 67 68 70 73 77 80 84 89 91 90 89 87 85 85 88 94 89 90 90 89 89 87 91
57 57 61 61 63 68 72 71 74 75 76 79 80 82 85 85 85 89 93 93 83 84 89 85 84 87 88 87 86 89 88 88
61 62 66 67 69 72 76 75 76 77 77 79 80 79 86 91 89 91 91 81 85 79 77 80 81 82 82 84 83 83 82 83
58 55 64 76 76 76 75 76 75 73 74 76 78 82 80 83 85 86 77 77 73 72 70 72 73 75 76 77 80 82 81 80
49 52 57 61 66 77 81 80 76 74 79 80 81 80 79 80 80 83 79 70 68 69 69 72 75 79 83 83 81 81 79 77
47 47 51 55 61 62 64 70 68 75 79 79 81 79 79 77 79 72 67 67 66 69 73 75 79 85 87 81 77 78 77 80
46 43 48 52 55 57 60 62 64 68 72 75 74 72 70 69 66 64 64 67 71 73 76 80 85 89 85 79 76 77 80 87
44 48 53 56 58 59 60 62 61 61 63 64 65 62 63 60 59 63 68 73 77 79 81 86 91 90 85 83 84 85 88 91
45 45 47 51 53 52 52 52 53 56 58 57 61 60 60 63 64 69 74 78 80 82 87 91 92 89 86 85 90 95 99 102
34 37 44 45 45 46 47 50 52 53 57 59 59 62 66 68 72 75 79 81 82 87 92 96 96 91 89 91 96 100 105 110
39 41 43 41 43 45 47 49 53 56 58 61 65 66 65 69 73 76 78 81 85 90 96 97 92 91 93 98 102 107 112 113
32 38 40 42 45 48 50 52 54 58 60 63 65 67 69 71 72 77 82 86 89 95 95 93 92 95 100 106 110 112 111 108

GFSFLT2_250_spd_039.txt.gz
Wind_Speed
26 32 36 38 41 46 44 44 48 55 57 61 59 57 53 58 58 60 57 61 58 56 54 53 55 54 58 62 67 75 79 83
32 39 35 39 39 44 45 49 55 54 56 53 56 55 59 60 57 57 59 48 44 49 49 51 50 60 70 68 72 79 83 85
30 33 38 41 42 53 55 52 53 53 52 50 53 49 47 48 55 53 44 40 42 49 56 59 65 68 75 78 87 90 94 91
42 42 43 46 53 57 49 50 51 45 45 45 43 48 43 59 50 42 42 47 59 61 69 77 76 79 81 87 90 97 101 102
39 35 49 56 56 56 54 50 53 48 53 41 41 39 41 43 48 58 61 62 67 72 74 76 82 86 93 96 97 97 96 95
51 45 49 51 54 57 62 63 50 41 40 49 53 57 56 58 61 63 66 72 72 73 78 82 89 93 97 98 97 96 93 93
53 54 56 58 61 60 46 55 56 50 52 51 51 56 63 64 70 76 76 73 75 83 87 90 92 94 95 96 94 91 91 83
63 58 66 66 66 56 56 55 54 53 61 62 67 63 63 64 67 69 68 77 83 85 86 92 97 92 90 88 79 75 70 70
58 59 64 64 63 63 59 56 55 65 62 62 63 67 72 73 78 83 85 87 91 89 87 91 85 79 77 73 69 69 69 70
59 59 61 55 59 60 57 58 63 60 63 69 72 74 79 82 85 81 82 82 84 84 80 79 73 74 73 70 70 69 72 76
53 61 61 62 63 59 59 61 68 69 70 76 77 80 81 84 83 86 82 81 87 73 76 75 73 71 71 73 74 77 80 83
55 57 62 60 60 63 67 65 67 74 76 80 80 81 78 79 81 80 78 73 74 75 73 74 71 73 74 77 78 83 86 87
51 51 51 57 61 67 69 68 67 65 70 77 73 76 79 77 73 71 71 69 70 72 74 70 73 76 80 83 85 88 90 92
48 51 57 57 57 62 65 65 60 59 59 64 69 70 72 72 72 71 71 71 74 73 73 75 78 81 86 87 88 90 93 97
54 52 54 56 62 61 61 61 59 62 64 69 72 71 70 69 69 71 73 74 75 77 78 81 84 87 89 88 90 93 98 100
51 51 54 55 58 60 60 60 62 64 66 67 63 62 63 66 69 72 75 75 75 78 79 82 84 84 87 91 96 99 102 98
45 45 49 51 53 55 56 54 54 57 56 55 57 61 64 69 72 74 75 74 75 77 79 79 83 88 90 94 99 102 99 97
41 43 43 41 41 46 48 48 51 51 53 56 60 64 67 70 69 69 71 74 76 74 78 83 88 91 94 98 99 97 98 102
36 30 34 40 45 47 47 49 52 52 54 59 62 65 66 66 68 72 71 71 75 79 83 87 90 92 96 94 95 100 105 110
29 35 38 37 42 45 48 51 52 56 56 59 61 64 67 68 67 68 72 76 80 84 88 91 93 94 93 95 100 107 112 113

GFSFLT2_250_spd_042.txt.gz
Wind_Speed
32 33 48 37 36 39 42 47 51 52 52 52 51 50 51 55 57 58 57 54 55 56 46 42 48 45 45 43 48 54 58 60
42 37 39 31 42 40 47 51 46 49 51 49 50 52 54 55 48 56 58 57 49 40 47 52 43 47 50 52 62 62 68 75
28 39 48 50 26 34 43 43 45 49 50 49 49 53 52 54 59 60 49 44 45 54 52 41 51 58 62 67 65 68 72 76
38 52 53 47 38 45 50 46 50 54 56 54 54 56 61 61 50 42 48 51 47 52 56 63 64 70 71 68 70 73 79 84
48 51 57 54 42 50 54 55 62 58 59 63 63 59 60 42 43 43 49 60 60 69 65 67 68 73 75 77 81 84 86 91
46 53 52 46 50 50 59 63 59 55 48 39 36 45 41 41 53 59 59 58 62 63 62 69 75 79 81 83 83 85 89 86
42 48 51 45 42 53 59 51 59 55 39 39 48 46 50 52 54 55 63 66 68 74 76 79 83 81 85 85 90 93 93 76
48 43 48 50 49 54 54 54 48 50 54 50 50 52 57 63 67 68 67 70 75 77 80 85 87 88 89 89 86 80 70 65
52 50 53 53 56 56 58 58 61 59 62 62 64 67 60 60 63 68 73 78 81 84 90 88 86 84 85 73 66 64 68 67
64 53 54 54 58 61 62 58 57 60 67 67 67 66 66 72 78 79 82 83 85 87 84 80 75 72 72 65 64 68 71 73
59 58 56 53 56 60 59 60 62 64 64 66 64 69 71 77 79 79 78 82 79 77 74 74 69 67 68 70 70 73 77 79
55 59 58 62 64 61 61 64 65 62 63 69 69 72 77 78 76 75 75 73 74 74 68 69 69 71 73 75 78 81 83 86
45 51 51 54 57 62 59 69 68 68 71 68 71 75 69 67 70 74 74 73 68 67 70 72 74 77 80 80 81 83 82 81
49 52 56 57 58 60 55 55 59 61 63 63 65 65 68 72 71 69 68 66 68 70 73 76 78 77 78 79 81 83 83 85
46 51 55 55 51 56 60 59 58 59 62 66 67 66 67 66 65 65 64 67 69 72 75 76 75 77 78 80 79 80 85 90
49 50 51 49 55 54 55 55 55 59 60 58 59 61 61 61 63 64 66 69 72 74 74 76 78 74 77 81 84 86 89 90
39 40 41 44 47 49 51 53 53 50 50 53 55 58 59 61 64 66 68 71 72 74 76 75 76 79 83 87 87 92 94 93
40 39 38 42 42 42 42 42 47 49 51 52 53 57 61 64 66 68 69 72 74 75 74 76 80 83 85 86 92 95 95 95
40 41 42 43 42 38 40 44 50 49 51 55 57 60 63 65 66 67 70 72 73 73 75 80 83 85 85 93 96 95 96 99
42 41 37 36 34 36 41 46 49 52 59 59 61 62 62 64 67 69 68 68 73 78 81 83 84 86 90 97 96 96 101 106

GFSFLT2_250_spd_045.txt.gz
Wind_Speed
49 48 54 58 42 44 43 46 47 46 48 49 52 53 52 53 53 54 54 55 58 54 58 60 62 59 53 51 50 58 53 50
41 41 46 39 29 33 36 42 38 47 48 50 53 52 51 50 51 52 56 53 51 55 60 61 48 53 52 55 55 59 59 60
53 51 32 32 35 33 42 46 42 47 53 55 57 54 53 54 49 54 58 57 60 62 45 48 50 52 50 59 59 60 64 69
47 41 48 38 54 45 46 37 44 47 49 53 46 51 53 51 54 55 59 65 59 46 44 48 51 51 60 64 63 65 74 75
50 54 45 43 48 58 56 53 47 50 55 50 53 60 62 62 60 63 62 44 45 42 49 63 55 66 64 65 71 74 78 82
54 59 56 52 59 64 58 55 51 55 53 54 57 61 66 67 47 39 41 43 48 55 63 64 66 68 70 77 81 85 85 86
59 62 56 57 58 55 54 58 57 59 68 63 63 65 57 39 42 51 54 57 62 60 64 65 69 72 81 82 86 87 79 68
65 59 50 49 52 60 56 62 59 64 65 67 57 55 48 51 55 58 63 62 68 69 74 76 74 78 80 79 73 70 68 67
59 60 46 42 50 53 53 53 59 61 62 57 57 54 53 55 58 61 63 67 68 70 75 80 78 80 76 74 69 66 64 66
53 51 48 45 51 51 50 55 59 55 50 52 56 61 63 64 65 68 71 73 74 77 79 80 76 74 74 66 64 66 68 71
54 50 54 50 46 47 45 52 53 59 62 63 61 60 63 68 68 71 72 73 73 75 76 73 74 70 64 64 66 70 73 74
54 61 54 51 57 59 59 58 54 51 51 56 58 62 65 69 72 73 72 74 73 72 69 68 65 63 66 69 71 73 74 74
57 57 56 56 53 56 54 55 59 66 67 65 66 59 58 62 70 69 71 73 71 66 65 64 65 67 69 72 73 75 77 76
41 50 55 53 54 56 54 56 56 56 59 65 67 67 70 66 68 70 70 65 62 62 63 64 67 69 72 74 77 78 77 78
37 39 42 43 43 47 50 55 55 60 62 59 62 62 67 68 66 63 62 61 60 61 65 67 69 72 75 77 74 74 77 81
38 39 44 49 49 52 53 52 56 60 66 64 63 61 63 57 58 58 59 62 63 64 68 70 72 72 71 71 75 79 81 83
40 39 40 40 42 45 48 50 51 51 52 52 50 49 51 53 54 60 63 65 67 69 69 71 73 70 71 76 79 82 85 85
29 30 34 37 40 41 45 47 47 46 45 44 47 49 51 54 60 63 67 69 66 68 71 72 70 73 77 81 85 87 88 90
34 36 38 40 43 44 43 40 40 42 42 45 50 53 53 58 62 66 67 68 70 71 72 72 75 79 83 86 88 89 92 93
37 38 38 41 36 36 32 36 39 42 46 51 55 55 59 61 62 66 69 68 71 74 74 76 80 83 86 88 90 92 96 99

GFSFLT2_250_spd_048.txt.gz
Wind_Speed
34 41 53 60 57 57 52 53 53 51 55 56 56 57 58 58 56 56 54 54 56 57 59 56 58 60 59 61 62 53 52 50
41 37 38 41 41 40 39 37 42 41 43 46 45 49 52 51 51 50 52 54 53 58 58 58 57 61 58 46 55 44 51 58
47 46 43 31 39 40 32 28 29 28 35 38 44 49 50 55 53 52 54 54 54 56 58 59 60 59 52 55 54 53 61 61
56 53 49 45 37 39 34 29 27 36 45 38 43 47 49 51 45 49 51 55 59 58 63 62 51 44 51 57 58 61 63 65
62 55 53 40 46 44 39 44 40 50 51 51 50 48 49 54 61 60 56 54 48 57 54 49 53 55 56 61 66 67 68 71
58 56 50 60 53 52 48 52 57 59 56 55 52 56 54 52 52 52 52 58 61 51 55 56 61 61 65 68 72 74 74 77
56 57 61 62 60 53 52 53 58 66 62 53 55 54 60 62 59 62 63 65 57 58 56 59 64 67 68 74 76 79 79 79
55 61 68 61 59 54 49 55 56 55 57 60 62 64 63 69 69 69 68 65 56 61 62 73 71 71 78 76 76 77 79 77
61 65 66 60 60 56 49 54 58 59 60 62 60 62 59 68 69 68 61 65 71 73 71 72 73 74 74 73 75 68 65 65
59 57 61 62 62 60 56 52 54 56 55 55 55 62 63 56 62 54 63 65 67 70 76 73 75 71 71 69 67 64 65 64
49 56 57 59 61 52 44 46 49 48 50 54 56 56 56 60 63 69 68 70 66 64 70 69 70 70 69 65 63 63 65 67
45 50 47 52 56 47 45 38 39 50 51 51 52 55 57 58 61 65 70 71 71 71 71 72 73 69 64 63 63 65 69 71
40 46 55 48 52 57 56 48 51 56 55 56 61 63 67 68 72 72 71 68 67 66 70 69 69 65 61 62 65 69 72 74
36 46 47 53 55 58 58 61 51 54 59 67 69 65 66 68 66 67 66 69 69 70 68 63 62 61 63 67 69 68 75 77
27 35 43 52 58 62 62 62 64 65 61 64 64 58 59 62 64 67 67 68 68 64 61 61 63 66 68 70 71 76 77 72
31 32 34 41 43 42 48 51 57 57 58 60 61 61 62 62 64 65 64 59 58 59 63 64 68 69 72 73 75 78 77 80
37 35 38 38 43 46 46 46 50 52 54 55 55 57 57 59 59 57 56 59 58 62 66 67 68 72 73 74 76 77 81 85
34 38 36 37 39 44 46 48 47 47 48 50 52 53 51 54 52 55 57 59 62 67 70 68 72 75 76 76 78 80 82 85
30 30 33 36 36 37 39 40 42 46 46 47 45 46 48 52 55 56 59 61 65 67 67 73 75 77 76 77 79 84 88 90
32 33 35 35 35 37 40 37 34 38 44 43 45 49 53 56 57 58 60 61 68 69 74 76 78 78 81 83 84 87 90 94

GFSFLT2_250_spd_051.txt.gz
Wind_Speed
42 35 40 49 61 63 64 59 56 58 58 57 58 60 59 58 59 59 58 56 58 59 59 59 57 59 57 57 61 61 59 53
30 21 27 25 33 43 49 54 53 48 47 51 50 53 48 48 50 52 52 55 53 55 54 53 56 58 59 61 59 57 56 58
51 43 36 41 44 37 37 37 43 35 36 31 28 40 38 45 48 52 56 56 59 51 54 58 59 57 61 59 55 54 57 56
48 46 49 51 42 34 27 31 37 34 30 31 35 38 39 39 50 49 52 48 45 48 59 56 56 57 59 61 60 56 59 59
57 55 59 52 46 34 33 45 44 37 44 33 50 39 37 42 47 50 49 53 51 52 55 55 53 60 62 62 61 58 64 74
67 62 56 45 44 43 43 48 47 42 41 47 52 43 47 50 54 62 61 59 62 56 56 61 62 67 71 65 67 69 75 71
70 69 61 50 52 52 51 50 48 49 50 51 54 54 47 47 53 60 60 63 59 60 66 68 71 68 69 69 74 73 78 78
60 66 68 60 57 60 53 56 53 55 48 55 59 63 58 50 55 61 64 61 62 69 72 64 71 68 69 72 72 69 75 76
61 62 64 58 59 65 61 58 57 60 53 55 58 58 48 56 61 57 63 69 71 74 57 60 66 69 75 77 71 76 80 78
47 63 64 61 65 65 65 62 57 52 55 55 56 57 53 53 58 62 60 64 63 65 67 70 73 69 74 76 80 75 74 76
43 54 64 64 65 69 65 66 58 60 57 55 54 55 59 60 58 57 62 61 61 62 62 70 75 78 78 71 73 75 73 70
19 46 56 62 66 58 61 50 55 59 45 53 50 53 57 57 60 61 64 63 64 70 77 75 77 73 73 73 70 69 67 68
28 27 37 39 47 47 52 57 46 45 49 50 49 55 57 61 69 68 68 70 76 78 73 70 70 69 69 68 66 66 65 68
25 33 38 42 48 50 47 50 55 52 58 59 56 58 58 58 62 68 75 74 67 70 71 68 66 74 66 65 67 66 62 65
28 30 38 37 47 51 51 51 51 59 59 61 65 67 69 67 71 67 72 73 71 69 72 68 67 67 70 69 68 68 69 69
27 25 26 30 45 48 58 56 57 58 60 60 62 65 65 75 79 73 69 68 71 70 69 69 66 66 66 68 70 71 75 77
30 30 27 28 30 34 37 43 49 51 55 58 64 65 67 67 63 65 68 68 66 66 66 65 66 66 64 66 71 76 81 85
31 33 37 36 37 39 42 45 49 53 56 58 58 60 60 62 62 61 60 62 62 63 64 65 65 69 71 74 78 82 85 85
33 32 31 35 37 37 42 46 45 45 49 53 55 56 56 56 54 55 56 61 64 65 65 66 69 73 76 79 84 88 89 88
31 30 30 31 27 35 39 42 49 47 49 52 52 51 49 49 51 58 62 65 67 68 67 69 74 79 81 85 90 92 90 89

GFSFLT2_250_spd_054.txt.gz
Wind_Speed
59 46 38 36 35 39 44 49 61 69 68 63 64 66 67 67 62 64 62 58 60 58 61 60 59 59 59 58 56 56 57 56
67 51 43 27 25 28 31 35 44 51 53 58 57 55 49 48 49 47 49 51 51 56 54 57 57 56 54 54 55 56 57 57
61 56 46 40 30 32 26 28 36 39 42 46 44 48 44 36 37 39 43 45 47 50 48 47 46 45 53 55 62 64 62 63
68 59 58 51 46 36 36 47 28 26 27 30 36 37 35 36 35 34 41 42 46 47 44 39 44 50 55 62 60 61 66 69
64 68 69 53 51 47 47 34 29 32 36 36 39 37 35 37 33 39 41 46 47 46 40 57 64 63 61 60 60 68 74 73
55 56 64 60 53 52 48 38 34 38 43 42 42 42 39 48 43 48 50 50 47 47 51 57 56 59 62 67 69 67 66 63
58 63 66 63 53 55 43 44 42 49 45 49 50 45 48 51 48 48 51 51 46 55 50 53 59 63 62 67 64 65 66 71
58 67 64 58 54 55 52 48 54 55 55 44 47 48 50 50 53 50 53 51 50 56 60 59 62 65 66 61 65 72 71 72
60 63 69 60 58 58 56 58 60 56 49 43 47 53 55 57 59 57 58 57 59 61 61 60 63 63 68 73 76 68 72 77
60 65 69 64 58 54 55 63 56 58 56 49 49 53 57 57 62 56 50 53 56 63 64 64 65 66 68 70 69 72 80 82
52 63 65 68 58 60 52 60 63 59 57 54 56 53 58 59 57 56 56 61 64 65 65 66 67 70 70 72 75 78 79 76
40 53 60 62 63 58 53 55 54 60 57 64 59 58 58 61 62 62 59 61 62 65 69 72 80 77 79 81 81 77 79 77
31 35 56 56 54 66 55 51 40 46 42 43 48 54 60 56 57 60 64 65 67 71 71 72 71 75 80 79 77 75 76 78
22 23 20 31 51 46 45 49 52 44 46 50 46 56 57 62 61 63 65 67 67 69 74 76 79 84 85 78 76 73 68 69
30 32 36 35 37 41 40 43 45 44 45 50 54 59 61 66 68 70 73 72 75 79 81 81 78 80 81 77 78 74 71 67
34 33 34 38 40 44 45 45 50 53 52 55 58 60 65 66 66 67 67 72 75 77 79 74 75 74 76 77 74 73 72 72
26 28 27 23 26 38 50 50 51 56 59 62 60 64 63 65 67 67 71 73 74 78 76 73 75 73 71 69 75 76 75 74
30 29 29 27 30 30 31 34 39 47 53 56 57 59 59 61 64 67 72 72 73 73 70 70 69 70 73 75 75 77 76 78
32 30 30 33 32 33 36 39 38 42 46 47 50 59 60 59 61 64 64 66 66 67 68 67 70 73 77 80 79 80 82 86
40 42 39 36 32 33 36 37 34 28 38 45 41 45 46 51 57 58 59 63 63 65 66 71 74 78 78 78 81 84 89 92

GFSFLT2_250_spd_057.txt.gz
Wind_Speed
52 43 49 46 48 49 38 40 35 31 31 38 48 61 64 61 62 62 63 69 76 74 70 65 64 59 58 58 58 58 56 54
63 55 55 48 40 43 39 38 33 29 30 32 39 48 56 59 59 59 54 53 55 54 47 53 54 51 47 48 43 46 53 52
63 64 69 66 58 48 37 36 26 21 24 29 29 34 40 40 46 51 51 46 40 40 42 44 43 46 48 39 51 51 56 58
64 66 63 60 62 54 45 43 32 27 24 21 26 30 36 33 38 40 43 48 43 41 42 40 42 46 43 42 48 51 56 55
61 63 65 61 58 55 50 45 44 39 31 29 28 31 33 35 38 40 38 41 41 41 47 49 50 44 39 43 56 53 52 57
73 69 62 62 63 56 50 48 43 37 38 36 39 40 40 38 38 36 39 41 44 44 46 44 47 39 47 52 50 56 59 62
75 74 69 64 59 62 62 56 47 41 38 40 42 43 44 44 42 45 45 45 50 47 47 45 47 48 53 56 60 62 62 62
73 73 73 72 66 65 62 59 50 46 44 46 46 44 45 47 48 48 50 52 48 50 50 55 52 51 58 61 60 59 66 67
64 76 75 72 64 62 58 58 55 56 58 53 51 49 52 49 53 54 54 51 52 52 51 49 51 56 61 59 67 66 70 73
65 72 72 67 66 64 62 62 58 59 61 60 59 50 48 51 47 50 55 55 55 57 59 60 59 62 64 68 67 69 72 74
49 63 65 62 62 62 57 57 60 60 62 59 58 54 48 47 49 50 52 57 56 57 60 61 63 63 64 69 72 75 76 80
44 49 54 58 59 63 57 59 54 58 59 61 61 62 61 55 52 53 53 52 57 62 62 64 62 69 74 75 74 75 78 79
38 47 55 58 58 60 63 60 58 55 55 51 55 62 66 59 54 59 62 67 68 67 69 69 74 74 74 77 74 76 79 81
31 38 55 57 59 56 61 62 65 59 56 51 50 47 55 58 64 60 60 60 63 66 67 67 67 72 74 73 78 78 82 79
23 19 27 28 41 48 55 58 62 62 53 53 51 49 53 53 57 61 59 60 62 64 67 70 76 76 77 78 81 83 81 77
27 26 26 34 27 29 29 37 42 45 49 48 50 54 52 52 53 60 58 63 64 69 71 72 75 76 77 80 78 79 77 73
29 31 32 35 40 39 43 38 45 48 49 52 51 55 55 58 56 62 65 62 64 64 65 67 71 74 76 80 76 75 74 74
32 33 33 33 34 34 33 39 39 46 50 53 57 57 61 59 60 60 61 57 62 62 66 69 72 74 73 74 73 73 77 80
40 32 28 27 32 34 32 34 37 38 43 46 51 55 55 58 62 62 64 62 62 59 62 68 70 74 75 73 74 77 79 80
38 34 32 31 32 34 38 39 41 44 47 50 52 53 56 53 53 52 53 61 68 68 71 75 73 72 74 76 79 83 87 89

GFSFLT2_250_spd_060.txt.gz
Wind_Speed
54 49 46 40 42 42 42 52 46 44 35 28 26 29 28 34 41 47 56 65 66 65 65 66 64 64 66 62 61 62 60 57
63 57 52 47 42 43 46 41 38 34 29 26 32 26 30 30 33 40 48 54 58 58 52 52 46 49 57 50 48 51 47 49
70 51 52 52 56 50 43 55 44 42 32 33 24 27 32 31 32 38 43 50 55 58 53 52 39 45 47 48 47 42 45 45
59 65 62 56 49 69 59 56 57 54 34 34 33 32 36 33 31 36 42 49 49 51 46 44 48 48 46 46 45 47 45 39
61 59 68 72 66 66 68 62 57 52 53 38 31 36 42 35 33 40 45 46 49 47 45 46 47 46 46 45 46 47 36 42
47 60 69 76 70 71 72 64 60 59 57 39 36 39 36 40 40 44 45 48 46 41 41 39 40 41 47 42 43 42 43 52
36 49 68 69 77 76 71 70 63 58 56 52 47 42 42 42 39 41 42 44 43 45 44 43 46 47 49 47 46 45 48 56
51 48 61 65 65 72 79 76 73 62 55 49 47 47 47 46 45 41 46 47 45 46 45 49 48 46 47 49 53 49 53 61
60 56 67 71 69 67 70 68 67 57 54 51 52 52 48 50 47 49 47 48 48 51 52 53 51 52 54 51 51 58 64 65
50 60 56 77 75 71 69 69 66 66 66 61 56 55 53 52 51 52 48 50 53 55 52 50 56 60 55 60 64 64 65 69
41 45 50 55 77 74 69 64 65 65 60 61 62 61 60 60 58 56 54 52 52 50 47 51 54 57 61 60 61 62 68 69
36 38 41 55 73 76 72 64 64 62 60 60 62 61 57 61 64 61 61 59 55 53 55 52 55 56 61 67 73 70 73 74
32 39 40 49 60 77 76 69 66 57 59 56 57 60 59 59 60 63 63 66 65 68 67 64 67 70 67 71 71 74 74 73
28 31 40 43 52 68 70 73 62 55 55 51 53 59 57 57 59 64 64 65 65 66 69 72 75 73 70 69 68 68 72 74
16 20 26 32 34 42 53 57 56 57 56 62 53 60 60 61 58 59 61 64 63 63 63 66 65 67 66 66 65 72 70 72
17 15 18 19 14 20 31 39 40 45 43 46 53 56 57 61 61 62 62 63 60 63 65 67 64 64 66 69 69 66 68 72
21 23 24 24 25 30 30 31 32 30 36 38 41 44 46 50 56 60 61 62 66 66 67 65 65 65 67 66 67 69 70 72
25 27 30 30 32 32 35 38 36 41 40 43 43 46 48 52 56 59 64 67 66 67 66 63 62 67 68 67 66 75 76 81
32 32 34 34 38 33 37 40 40 36 36 42 40 42 45 48 50 52 55 60 64 66 69 71 74 73 74 70 71 77 80 81
23 30 31 36 32 32 32 33 35 36 36 41 43 43 45 48 48 49 48 52 51 58 65 67 67 69 73 77 77 81 84 85

GFSFLT2_250_spd_063.txt.gz
Wind_Speed
56 49 58 38 22 38 40 41 36 39 30 36 48 45 36 25 23 25 34 39 39 47 52 58 63 68 73 74 74 74 72 69
47 42 52 40 44 46 43 39 35 36 36 46 48 43 44 38 22 20 27 24 30 36 38 40 44 50 57 62 61 57 61 58
52 57 54 52 51 40 44 41 38 39 42 48 47 35 30 29 31 31 36 36 37 35 37 41 42 48 54 52 56 54 51 48
60 66 66 57 46 36 46 45 40 38 44 47 44 28 26 36 38 32 30 39 34 36 44 50 54 47 48 47 48 46 46 43
67 70 70 67 52 49 55 54 45 48 45 46 41 30 34 40 41 46 42 43 48 49 46 46 44 47 46 44 42 42 43 43
55 69 71 68 62 57 62 59 55 47 48 50 46 43 45 40 44 44 51 55 51 51 41 43 45 46 46 43 45 42 45 48
55 64 69 63 63 65 69 68 61 62 47 46 46 42 43 48 46 46 50 38 41 42 39 41 46 46 43 45 45 50 50 52
53 54 65 69 72 70 67 66 59 62 66 60 58 57 54 54 49 43 44 43 45 42 44 46 45 46 47 46 50 53 54 55
55 52 62 58 60 73 74 64 69 65 64 67 68 63 59 59 49 49 53 55 51 46 47 44 47 50 50 51 53 54 51 57
65 57 53 60 59 59 65 72 75 76 66 64 65 69 67 68 62 63 59 58 56 52 48 51 47 52 52 57 51 51 53 55
75 67 58 58 67 61 59 59 71 76 75 74 71 70 69 62 66 62 59 56 57 55 58 57 58 58 55 56 57 58 58 58
70 77 71 67 61 62 62 59 65 74 76 72 68 66 66 65 66 62 58 62 63 58 60 62 63 64 62 63 67 67 65 66
45 60 61 61 57 60 57 64 69 76 75 71 69 68 63 61 64 61 59 64 61 59 59 61 63 63 62 65 67 68 73 70
30 35 42 45 49 41 42 51 60 72 70 65 60 61 59 58 58 55 56 58 57 61 60 59 62 65 68 70 67 69 68 70
22 23 29 30 30 35 34 37 44 55 66 70 70 57 57 57 59 61 56 59 61 64 68 70 73 71 68 71 68 70 69 71
21 23 20 24 28 26 26 27 29 42 56 57 63 61 50 56 53 58 65 65 66 68 70 71 72 68 67 66 68 67 68 69
24 25 22 20 19 25 24 19 22 27 28 33 36 41 47 49 48 49 53 55 55 57 56 59 58 58 61 60 64 63 67 67
26 26 27 25 23 22 23 24 26 28 30 32 31 36 40 40 41 47 45 48 47 48 49 54 55 56 59 60 60 62 65 72
25 30 27 24 24 27 31 31 31 29 33 35 37 40 39 37 41 42 43 42 46 48 50 52 60 67 65 64 66 69 69 70
19 23 25 31 29 28 28 39 37 33 34 36 36 34 35 38 40 41 42 44 44 48 50 43 58 68 70 64 65 69 69 72

GFSFLT2_250_spd_066.txt.gz
Wind_Speed
27 31 40 41 29 31 36 38 38 40 39 39 40 42 35 32 38 36 25 28 24 23 18 23 26 29 27 26 36 41 38 43
34 28 25 34 31 30 27 35 41 48 46 44 40 36 32 34 35 43 40 29 20 23 15 18 19 33 33 44 37 42 47 48
34 33 16 42 38 40 33 35 52 42 46 41 41 39 31 40 29 34 39 37 36 31 26 25 35 38 45 43 40 39 43 41
34 35 49 46 52 43 44 44 54 42 41 38 40 33 34 34 39 37 42 38 37 34 35 34 38 44 43 41 38 41 40 40
38 38 50 57 57 50 51 49 48 43 43 43 40 41 46 43 39 39 43 41 37 39 39 41 42 48 44 38 42 44 39 38
42 38 45 65 68 49 51 46 42 40 41 44 41 47 47 45 42 33 36 40 42 45 46 46 44 49 45 42 44 42 41 43
48 38 45 54 68 59 54 49 44 42 40 41 39 43 40 38 36 37 39 38 43 48 37 39 43 47 42 43 41 41 42 43
54 40 48 53 65 65 55 52 49 51 45 47 48 40 35 32 34 35 38 40 45 42 37 36 41 44 46 45 44 43 45 46
58 51 44 52 54 65 66 59 66 57 61 60 54 51 48 44 44 47 50 47 48 45 47 48 49 51 51 47 46 46 51 50
55 60 53 46 57 50 66 61 57 67 64 63 66 61 59 59 61 58 59 59 57 59 55 53 53 52 54 51 51 54 55 56
59 63 66 60 52 60 56 58 56 62 63 61 66 65 62 61 60 60 59 63 63 59 58 59 59 58 55 52 53 54 56 56
64 64 65 66 57 65 66 59 55 55 62 64 65 65 67 70 71 67 66 67 65 62 60 59 56 59 56 53 55 59 58 57
63 66 69 71 64 63 64 64 65 70 63 66 67 64 66 67 68 73 68 61 58 61 61 61 64 54 52 56 58 58 61 67
33 48 60 74 70 71 70 68 69 68 70 77 68 67 67 65 70 70 64 61 60 61 60 60 55 54 56 60 61 67 69 68
22 25 36 51 68 68 78 79 73 70 62 65 67 67 68 67 69 68 64 62 62 65 63 60 58 61 61 66 68 70 69 67
20 24 27 30 39 53 58 72 79 67 55 62 66 66 61 59 63 62 60 63 68 56 55 56 56 58 62 65 64 59 56 55
23 23 23 25 26 32 33 34 40 45 43 42 46 45 49 47 53 61 63 55 53 58 58 56 55 53 52 56 52 51 56 51
23 25 25 26 23 22 25 26 27 28 30 30 31 30 35 39 40 46 51 51 52 56 55 50 51 55 54 52 55 53 51 55
17 20 28 27 30 25 22 24 24 24 27 27 28 35 36 36 40 41 40 44 47 47 45 47 50 51 52 52 51 63 56 55
16 18 25 33 31 30 27 29 33 33 33 34 30 32 35 40 41 39 43 46 47 46 45 48 50 52 52 53 53 53 59 61

GFSFLT2_250_spd_069.txt.gz
Wind_Speed
23 18 20 21 32 36 39 40 41 50 49 38 28 31 44 48 37 40 42 35 21 14 1 2 3 4 7 10 21 23 28 30
17 12 19 15 19 24 30 33 44 38 39 39 27 32 40 43 39 41 34 38 32 21 18 21 13 12 19 18 32 34 34 35
21 24 37 21 15 14 22 31 40 41 44 42 33 36 39 43 41 35 35 30 24 26 17 23 23 23 23 27 33 36 39 33
31 38 37 22 27 28 21 24 27 33 38 44 47 43 45 40 42 36 38 26 26 30 29 32 31 30 35 37 39 41 42 38
33 34 31 30 41 39 36 37 40 42 37 42 44 42 41 44 42 42 39 32 32 39 36 31 34 36 38 41 43 45 42 38
22 30 36 40 50 46 38 51 47 48 44 48 43 43 41 43 42 38 40 40 40 40 40 39 36 39 41 45 46 45 43 36
30 28 36 47 48 45 51 54 46 52 45 44 50 43 43 44 45 47 43 42 43 35 41 32 38 41 44 45 41 35 35 37
35 35 30 39 43 47 45 48 51 52 53 49 54 48 46 51 47 42 41 36 37 31 34 36 40 39 35 36 38 40 39 44
31 34 29 38 36 41 46 48 52 47 48 47 50 50 48 51 45 46 46 37 38 39 41 43 44 46 41 45 43 43 46 45
54 41 42 36 33 41 47 46 49 51 44 48 45 43 42 43 45 46 43 44 45 48 53 51 51 50 50 51 49 48 43 47
52 58 46 45 46 40 48 45 44 49 52 47 48 50 50 48 48 49 50 51 52 51 54 56 56 58 54 52 51 54 54 56
62 58 56 55 49 46 48 56 49 43 57 64 60 55 53 57 57 54 54 57 59 61 60 61 60 52 54 56 56 57 56 59
64 69 71 60 61 61 55 50 62 52 49 55 54 61 57 61 61 63 63 63 65 66 67 66 56 56 56 57 56 61 61 58
57 61 66 70 64 70 61 65 60 61 62 57 53 54 53 53 54 55 60 62 62 67 68 69 65 60 57 59 59 60 55 54
34 43 60 67 76 72 73 71 70 73 68 72 64 60 64 65 61 60 63 63 63 63 63 59 56 57 56 60 63 56 54 54
29 36 39 37 43 34 46 59 67 69 73 71 63 65 68 60 63 65 68 68 64 61 60 58 53 52 60 57 57 55 54 53
22 28 30 33 26 24 24 28 40 44 64 67 66 73 66 64 65 65 61 51 46 46 49 53 56 59 56 50 49 60 63 58
20 20 22 27 25 23 22 22 26 28 29 38 47 49 46 47 49 44 42 40 42 43 45 46 46 50 53 59 59 60 62 64
21 20 20 24 27 24 22 20 23 24 23 27 30 30 27 29 30 34 35 36 39 43 45 47 51 53 54 57 57 54 56 57
27 20 20 18 24 27 27 23 22 24 27 28 28 28 31 37 42 40 40 42 45 47 46 47 49 48 51 54 54 57 55 60

GFSFLT2_250_spd_072.txt.gz
Wind_Speed
26 28 33 34 36 43 33 32 31 36 42 34 35 27 35 41 41 40 46 41 44 38 39 30 18 10 12 16 14 8 12 17
22 18 17 20 27 34 38 32 26 28 36 39 32 33 31 40 42 44 44 45 41 43 23 26 21 14 15 16 14 15 23 27
20 17 25 25 18 20 28 34 30 29 36 44 40 31 32 27 36 43 46 36 35 35 35 32 22 24 27 23 23 28 30 31
20 36 41 38 30 22 16 25 31 30 31 37 43 35 28 34 30 40 46 42 35 34 29 36 34 35 33 34 33 33 33 35
38 38 33 21 36 41 34 26 30 30 34 33 41 46 39 34 35 38 40 38 36 34 33 38 37 38 35 35 33 35 32 35
43 30 24 31 31 28 36 31 33 29 34 42 39 38 40 42 42 42 40 37 39 39 36 38 36 38 36 33 34 42 41 42
33 26 26 25 36 38 42 37 38 34 41 41 38 42 44 42 41 43 39 37 40 36 42 42 38 39 39 39 42 39 42 42
24 28 29 32 39 40 42 41 42 40 39 43 42 46 43 42 42 44 42 39 40 46 41 42 43 43 42 42 43 43 35 36
32 24 27 32 41 39 45 40 40 42 43 49 51 48 45 43 47 48 42 44 43 45 47 48 46 40 40 42 43 44 41 43
35 36 32 28 42 47 50 47 45 44 45 48 52 48 51 45 47 48 48 48 48 47 47 47 45 42 46 47 47 48 45 48
49 42 39 37 29 39 48 43 47 49 47 47 49 49 52 51 46 46 46 47 45 47 44 45 43 47 48 52 54 51 53 55
58 55 50 46 41 38 43 42 48 51 50 49 54 56 48 49 47 46 45 47 46 45 46 47 49 52 57 60 62 61 61 57
57 57 64 57 55 49 46 49 41 49 53 52 52 49 50 47 49 51 48 50 49 54 53 54 60 60 63 64 62 64 57 59
52 58 57 67 63 60 57 54 52 45 44 51 58 49 43 48 54 53 55 49 50 54 59 59 62 62 64 64 65 61 56 55
19 37 58 62 65 66 66 66 58 61 60 56 54 64 59 52 54 51 50 51 51 52 55 57 60 63 62 60 61 56 53 53
13 21 27 37 51 58 68 68 74 68 62 64 66 61 61 61 63 62 60 60 62 64 61 61 62 63 60 53 53 53 53 54
19 12 17 26 29 34 55 60 63 65 68 57 62 69 66 72 71 64 60 62 64 63 63 62 53 51 51 50 53 55 54 53
20 18 11 16 23 28 34 39 44 47 46 42 47 51 55 57 60 64 58 53 52 52 50 48 46 49 50 49 48 50 50 51
26 21 18 11 15 22 25 28 29 26 29 32 33 35 35 37 39 39 41 40 39 43 45 45 43 43 42 45 51 53 55 54
26 25 22 18 12 19 24 27 26 23 24 30 33 31 35 32 32 32 34 35 36 37 39 40 44 49 52 51 51 52 53 51

GFSFLT2_250_spd_075.txt.gz
Wind_Speed
24 25 40 43 43 41 45 36 43 43 46 41 38 37 38 37 31 39 36 38 33 31 39 34 32 35 34 22 17 14 11 6
19 32 40 43 63 50 51 40 36 36 31 31 37 38 34 31 36 39 32 37 39 39 40 35 37 32 24 17 14 10 16 20
11 26 39 44 64 63 50 49 41 27 33 32 34 30 30 25 28 39 40 45 40 38 34 38 36 37 30 24 24 23 26 26
14 21 28 37 52 57 63 54 48 45 38 35 34 31 30 25 30 32 35 38 35 39 37 32 32 35 34 33 32 33 33 36
17 27 29 38 47 52 50 60 56 49 33 35 42 41 29 27 27 22 25 29 42 41 32 31 34 34 36 35 38 39 36 32
23 34 41 41 43 36 30 43 49 46 32 36 40 36 35 31 31 30 28 30 40 43 35 31 31 38 40 37 36 33 32 34
17 37 39 21 31 32 38 31 34 36 28 28 34 37 41 43 34 32 31 32 39 41 39 38 41 40 37 37 36 36 35 37
29 40 36 25 27 27 46 33 37 31 31 39 40 40 42 41 40 32 35 38 40 38 37 36 39 38 38 37 39 37 35 35
31 25 35 30 38 32 42 43 40 40 42 42 37 42 42 43 39 37 40 40 40 44 41 40 40 40 35 39 41 37 37 37
41 29 28 35 33 36 44 43 47 40 41 39 40 47 44 42 46 44 42 42 43 44 42 43 41 38 43 41 44 40 43 43
41 38 38 31 38 36 46 47 49 45 36 42 37 41 42 46 50 51 52 47 46 45 44 46 44 38 41 42 40 42 46 49
50 46 42 40 35 40 41 44 47 46 43 43 44 45 52 49 48 47 48 50 45 44 43 45 45 46 44 45 46 49 52 57
55 52 49 46 42 40 45 35 51 48 49 48 47 51 50 53 53 48 51 50 47 50 53 46 51 52 47 50 52 56 62 62
44 61 61 57 54 49 48 48 44 55 54 49 56 52 49 50 49 48 53 53 52 52 53 51 53 52 53 55 60 60 64 64
13 28 56 61 65 62 55 54 51 49 53 55 50 55 54 55 55 55 50 48 51 53 52 53 55 56 60 63 64 64 66 63
10 10 19 34 56 58 65 63 61 60 56 57 59 52 55 51 54 52 53 52 52 56 56 53 61 65 63 63 65 66 63 59
13 11 10 19 28 39 53 51 63 63 62 60 61 65 61 64 63 63 60 62 66 65 63 62 68 72 70 68 64 65 62 62
15 15 13 14 16 21 28 33 37 40 47 55 57 57 61 64 66 67 71 71 68 68 70 71 70 69 66 64 66 61 54 52
16 16 15 13 15 13 19 24 30 32 33 36 39 48 53 58 61 64 64 63 68 68 68 66 65 67 62 58 56 54 49 46
13 15 17 16 15 14 12 15 24 28 29 30 32 35 40 39 41 47 50 53 59 65 63 58 55 52 48 46 46 47 49 54

GFSFLT2_250_spd_078.txt.gz
Wind_Speed
35 29 30 25 26 44 44 42 47 43 46 45 44 47 41 41 36 37 37 34 34 31 36 29 22 30 32 29 26 32 20 13
33 25 22 32 46 52 45 43 40 52 41 43 40 40 32 36 35 32 30 25 29 30 26 27 29 33 35 32 32 22 17 13
31 21 25 45 52 56 53 48 37 37 39 47 53 36 28 30 36 27 26 31 33 31 32 25 28 32 33 32 28 28 22 23
26 18 33 38 54 60 52 51 48 49 40 34 41 37 28 33 27 26 33 38 32 31 36 34 32 33 37 34 34 34 29 32
22 21 37 41 52 54 62 58 54 55 37 35 33 27 33 28 25 27 35 42 33 35 35 32 32 35 30 26 29 30 29 31
26 26 34 48 49 58 66 64 53 65 45 44 33 32 32 30 25 24 29 34 36 31 29 32 36 27 28 27 24 29 30 28
24 27 32 38 45 58 65 69 64 55 51 55 46 41 36 35 26 24 29 22 22 23 31 33 24 27 26 28 30 28 32 30
26 29 36 39 39 49 63 67 67 65 64 59 54 47 37 37 31 31 29 27 26 29 31 35 31 32 29 29 29 31 35 31
25 24 33 44 45 46 58 68 69 75 69 54 52 45 40 41 34 37 27 27 29 36 31 35 36 35 35 32 37 35 35 38
35 24 35 41 47 32 37 41 45 43 49 42 44 35 38 37 39 40 37 31 32 34 35 38 37 37 41 44 35 37 36 35
39 31 32 47 45 35 32 31 40 42 36 39 36 37 44 42 39 41 39 39 37 38 39 38 41 42 42 38 34 38 40 45
44 43 37 36 44 42 36 38 45 50 46 38 45 46 48 49 46 43 39 41 37 43 45 45 47 44 45 41 42 47 45 51
45 51 48 42 38 44 42 38 49 51 49 50 44 47 49 40 41 44 43 47 47 42 44 46 47 49 45 48 49 50 51 48
14 51 56 55 46 50 44 46 43 54 51 58 55 46 51 50 44 50 46 50 51 50 50 52 50 49 50 51 53 55 51 54
8 20 48 58 55 51 50 48 53 51 55 53 54 53 49 54 48 51 53 56 57 54 50 49 53 55 56 55 53 55 56 56
8 9 14 34 56 61 59 56 53 53 60 57 56 57 52 53 52 53 55 55 52 54 58 53 54 54 55 58 59 64 65 65
8 9 10 11 20 38 66 67 65 66 62 61 61 63 63 60 60 54 53 51 53 55 59 59 59 59 62 61 63 68 71 69
13 11 9 10 7 12 24 34 61 70 66 69 66 64 64 65 62 62 65 61 59 59 61 62 66 67 69 68 70 71 74 78
15 18 18 11 12 8 7 17 26 38 50 60 61 59 60 59 65 66 68 72 72 70 67 70 73 74 75 75 75 76 71 71
16 19 20 19 14 15 13 10 8 17 28 38 43 47 50 53 61 63 64 68 66 67 69 72 72 73 75 77 76 74 68 63

GFSFLT2_250_spd_081.txt.gz
Wind_Speed
44 36 35 30 32 35 37 39 51 53 38 47 42 41 38 43 44 42 40 36 38 40 36 34 29 20 14 21 20 19 24 27
39 37 28 21 30 31 35 46 59 55 43 42 43 47 50 48 43 41 47 39 38 33 29 24 22 27 20 21 25 29 30 22
36 29 16 22 25 30 37 46 50 51 46 47 42 49 50 44 38 35 44 34 34 27 23 24 31 27 19 23 27 24 23 24
31 25 16 15 29 30 43 47 44 36 38 44 55 54 47 46 44 28 28 31 30 28 33 33 31 29 26 33 32 27 31 32
22 23 14 21 36 37 50 53 52 46 43 50 48 44 43 38 38 28 28 38 27 30 36 41 31 27 26 31 33 29 35 32
26 21 17 28 42 47 47 55 49 52 56 55 53 47 38 32 25 27 28 26 32 38 38 40 32 29 24 37 37 27 26 23
25 24 22 33 45 54 56 53 50 56 60 53 48 43 28 22 24 27 25 27 34 36 38 37 31 26 29 36 33 29 25 25
27 24 17 32 47 55 59 57 53 56 55 50 54 38 35 33 27 25 27 28 29 32 34 26 24 23 36 33 28 28 31 27
29 28 23 30 41 48 58 58 60 59 57 59 52 45 44 39 37 34 32 29 30 26 24 24 26 31 35 30 32 35 32 31
29 31 27 24 40 48 57 63 63 65 66 58 63 49 51 48 48 37 39 32 31 31 30 27 27 30 34 30 31 34 37 36
20 37 29 30 29 41 45 54 59 67 69 66 69 60 59 48 39 39 36 35 32 34 32 33 34 36 37 35 39 39 37 38
22 31 43 32 32 32 47 46 45 49 64 75 70 66 57 38 40 42 44 42 39 41 40 39 36 39 41 40 40 44 43 43
20 17 39 42 36 35 46 42 41 43 53 58 63 54 47 41 41 42 41 41 41 40 41 40 38 42 47 47 45 47 45 47
20 18 19 42 39 35 50 45 42 38 44 49 56 57 50 44 46 45 51 51 55 54 49 45 45 48 45 46 46 48 50 53
20 17 17 28 47 44 43 44 50 44 43 44 52 53 49 45 48 55 56 52 50 54 56 47 49 52 54 55 55 60 60 51
14 17 18 18 32 52 53 55 50 51 49 49 48 55 55 55 56 56 54 55 54 48 50 51 56 57 58 58 58 56 54 55
9 11 15 17 19 24 41 64 61 59 53 52 53 55 57 57 63 61 56 55 59 66 61 60 59 58 59 58 61 61 60 61
12 6 9 14 14 17 18 27 51 68 61 61 58 61 64 63 59 59 59 58 56 58 60 60 58 59 61 61 64 64 65 64
20 14 7 12 11 15 15 15 20 34 53 69 71 69 67 68 66 68 68 65 65 65 62 63 66 67 68 68 70 71 70 71
25 21 15 17 15 16 17 17 16 15 23 33 43 58 66 67 70 67 70 69 66 66 65 68 71 70 71 73 72 73 73 77

GFSFLT2_250_spd_084.txt.gz
Wind_Speed
39 36 38 39 35 39 41 43 51 45 41 44 37 34 31 24 33 34 29 28 25 27 32 35 37 39 37 28 20 21 20 17
40 36 36 35 34 38 42 43 45 48 48 49 45 45 37 30 34 37 37 34 35 35 29 31 35 31 27 22 24 25 22 19
41 36 34 31 25 28 36 35 42 49 52 54 43 44 43 35 37 45 42 36 38 31 34 30 30 26 27 24 22 23 23 21
35 32 29 23 21 24 26 27 37 49 59 57 49 51 42 35 40 46 45 42 26 30 26 31 31 30 31 30 26 17 20 22
38 32 26 16 19 19 14 18 29 43 60 52 39 45 48 44 40 34 34 32 41 33 33 30 26 37 36 34 25 16 37 36
39 30 22 17 18 19 16 19 33 46 51 54 41 40 49 47 42 38 22 28 25 20 23 25 23 39 43 38 28 22 34 35
33 27 20 17 21 18 23 32 37 40 49 48 46 57 55 55 42 28 19 21 21 20 27 17 18 33 38 40 30 26 30 34
31 27 17 16 24 22 31 37 40 43 45 52 49 56 55 52 41 21 24 25 22 24 30 20 17 28 36 36 32 28 36 40
32 26 21 17 22 24 37 29 46 47 43 54 51 50 53 50 45 34 28 23 28 29 25 28 29 32 36 39 36 32 38 40
33 28 19 20 21 28 35 41 45 52 49 53 50 55 48 45 46 36 33 35 36 29 31 27 29 35 40 40 33 37 41 34
32 31 22 25 23 25 41 44 44 55 52 52 62 52 49 47 48 45 41 42 40 35 31 29 28 34 38 32 27 30 34 30
29 30 24 18 31 26 35 48 47 51 51 54 54 54 55 52 54 52 50 46 43 38 31 37 35 33 32 34 38 38 37 34
25 28 27 20 30 33 23 37 47 47 52 53 60 63 62 66 62 58 54 40 45 42 38 37 36 39 40 43 41 41 45 42
27 26 24 21 17 37 39 33 36 49 46 49 52 56 61 63 66 68 63 48 46 48 47 45 39 42 46 47 45 45 49 43
21 21 19 17 16 15 37 42 37 44 52 44 46 45 48 54 63 60 51 55 52 54 55 49 47 45 49 52 54 54 53 47
18 19 19 16 15 15 19 39 40 37 47 49 50 44 44 48 48 48 48 49 49 49 51 52 54 51 56 57 59 59 52 57
15 19 18 11 12 13 13 17 37 39 46 50 49 52 49 49 48 48 47 46 47 46 51 53 53 56 51 54 55 54 57 61
18 18 19 18 8 12 14 12 14 34 52 53 56 52 56 51 54 52 57 59 57 59 60 59 60 56 57 60 61 63 63 66
24 19 21 19 10 11 16 18 16 16 17 27 44 51 55 60 59 59 58 62 65 62 64 67 62 58 61 62 63 66 69 69
26 23 19 22 18 16 15 17 20 24 22 19 21 31 44 50 57 61 61 63 66 67 67 67 63 62 63 63 65 67 69 71

GFSFLT2_250_spd_087.txt.gz
Wind_Speed
29 31 35 38 37 39 39 39 41 45 45 46 39 44 45 40 24 18 24 24 25 21 19 21 23 24 26 31 34 32 29 21
29 31 37 41 37 35 38 38 39 44 46 44 39 44 51 39 27 22 25 27 26 23 23 24 27 27 26 31 34 28 23 25
35 34 38 41 35 31 32 33 39 42 42 47 42 47 49 38 35 26 24 25 27 23 20 31 28 17 27 33 30 29 27 29
38 37 37 38 30 30 26 32 36 39 41 47 49 50 53 43 36 33 29 23 28 35 32 27 24 30 28 28 28 32 30 29
39 36 34 33 28 22 21 26 30 32 39 45 55 48 42 47 42 38 31 28 26 22 27 29 27 18 23 25 29 32 30 34
41 36 34 29 24 18 17 18 18 20 30 40 56 54 53 45 41 34 28 29 22 24 25 24 17 17 20 16 28 34 38 36
41 37 35 29 24 16 13 16 14 17 26 38 56 57 49 41 39 40 37 37 33 18 17 26 22 21 25 16 29 37 38 39
40 38 34 28 23 16 14 17 16 14 20 34 49 49 47 44 46 42 37 35 31 19 19 19 21 21 19 17 33 35 38 33
38 36 29 26 25 17 12 20 15 20 24 39 31 42 38 47 48 42 39 38 30 24 25 20 23 17 15 17 28 37 41 37
37 36 25 23 23 19 11 23 17 17 27 44 41 42 42 48 51 47 46 40 33 29 34 26 24 28 24 23 31 38 41 42
37 33 28 24 21 18 13 23 22 26 30 33 45 40 44 40 50 49 42 31 33 32 30 28 30 36 31 32 35 41 44 41
32 31 30 26 21 16 20 14 34 25 33 39 36 41 47 51 53 46 44 35 39 41 44 37 39 37 33 34 33 34 41 38
28 28 31 26 21 18 23 20 32 36 34 41 48 43 47 49 53 50 50 54 53 46 45 38 38 40 38 38 34 35 36 41
27 24 29 23 23 17 20 25 20 38 42 42 47 47 52 46 48 48 52 52 53 53 51 51 42 44 44 42 42 41 43 47
27 22 24 23 23 18 10 26 30 25 23 37 53 45 54 55 58 57 57 57 60 58 58 55 53 47 48 44 46 46 47 49
30 21 19 21 21 19 10 7 24 36 31 28 29 47 50 48 52 54 54 56 59 57 45 49 52 51 55 56 54 51 52 54
33 23 18 21 20 19 11 8 7 20 33 35 31 35 42 53 52 48 50 46 46 45 48 50 54 54 60 63 51 52 54 55
35 29 20 19 19 18 13 10 10 4 11 23 32 36 39 44 45 46 52 51 49 48 48 51 49 49 54 54 55 53 54 56
39 30 25 21 20 17 13 12 11 12 10 7 8 21 38 51 51 55 55 54 53 52 51 51 53 53 55 58 59 61 61 59
41 36 29 23 23 20 18 16 15 17 14 13 12 10 10 15 35 56 54 54 56 56 57 57 58 62 64 66 66 66 67 70

GFSFLT2_250_spd_090.txt.gz
Wind_Speed
34 36 35 34 33 31 31 29 33 41 45 46 46 39 40 44 47 41 30 34 22 17 23 23 22 19 15 15 20 23 27 30
38 37 35 32 36 38 37 30 32 40 44 45 44 43 42 43 44 43 41 32 23 24 23 19 18 15 19 21 15 20 26 31
40 36 33 33 37 35 34 31 29 37 41 44 43 40 40 34 45 48 39 32 23 27 25 16 15 15 18 18 21 25 30 29
41 36 32 33 38 38 31 28 29 34 39 44 43 43 39 37 50 48 32 31 28 28 28 23 21 17 18 20 22 24 22 24
40 35 32 34 39 39 30 23 26 27 32 36 37 40 41 41 53 43 36 28 23 18 25 28 25 23 20 14 13 20 22 23
38 33 33 33 36 37 29 19 23 19 26 32 32 37 46 44 58 46 38 34 27 28 19 16 17 20 24 16 16 22 21 22
34 32 34 32 33 31 26 20 19 19 24 25 25 37 49 54 60 50 42 30 32 28 23 16 16 19 21 18 20 26 21 20
33 32 33 31 29 28 24 19 17 15 23 23 21 39 54 57 52 48 36 33 31 25 26 21 16 18 12 14 20 24 18 24
36 34 34 31 30 25 20 18 16 15 19 17 13 37 56 43 43 42 39 37 32 34 29 24 13 15 19 23 24 21 19 23
36 35 33 30 28 24 18 15 15 17 15 7 7 34 52 53 49 43 34 28 32 23 29 28 22 18 20 28 26 23 23 30
37 33 32 30 27 20 19 16 16 17 18 18 12 24 43 41 41 39 35 35 37 29 38 34 20 27 29 34 29 24 25 27
36 33 31 30 27 20 20 17 17 19 22 27 24 24 32 35 37 39 38 42 41 32 23 27 27 28 31 34 29 30 26 31
36 32 30 28 24 22 19 11 20 25 29 30 23 23 32 36 36 42 46 44 43 46 33 35 37 43 33 36 35 33 36 34
37 31 29 25 21 20 19 15 22 29 31 34 34 29 32 37 38 43 42 46 49 46 44 43 39 37 43 44 40 45 43 40
38 31 28 24 21 18 20 15 19 27 34 32 37 36 37 42 44 47 46 44 50 52 51 49 49 53 50 50 49 46 48 47
39 33 27 25 19 18 15 13 5 29 33 33 38 38 42 42 46 48 49 53 57 56 54 54 53 51 56 57 49 47 50 52
40 35 30 25 19 17 13 7 6 7 33 29 28 30 35 46 44 49 50 50 50 53 57 58 56 51 49 52 53 54 52 52
43 39 33 30 22 20 13 6 4 6 4 23 34 34 32 32 32 41 47 49 50 49 47 47 41 44 42 46 52 56 57 60
47 42 38 32 29 23 17 14 7 3 1 6 9 16 30 38 37 37 41 48 49 47 47 46 45 46 46 45 47 52 53 55
49 45 40 38 31 28 23 19 18 12 8 5 4 8 11 12 16 27 39 46 50 49 50 49 52 55 51 51 52 53 58 58

GFSFLT2_250_spd_093.txt.gz
Wind_Speed
39 39 40 37 34 31 34 35 36 33 34 43 43 39 40 42 50 50 47 42 35 37 37 37 27 18 19 20 18 16 20 21
43 43 38 38 33 33 34 35 33 35 37 40 41 41 39 41 42 50 45 44 35 40 32 31 25 21 24 21 18 12 11 17
46 44 38 36 35 31 31 32 31 33 36 38 41 40 39 42 42 38 50 42 42 41 38 25 22 25 25 21 21 16 18 16
50 49 39 33 33 27 29 33 31 31 34 35 37 37 36 39 42 42 45 45 48 44 33 29 26 26 20 20 17 16 9 10
50 51 37 31 33 25 29 33 32 31 31 32 35 36 35 36 39 43 47 49 50 45 37 29 25 25 25 19 19 10 7 15
51 51 39 32 32 25 30 33 30 29 29 30 32 32 35 38 41 41 50 50 47 43 38 37 26 23 24 22 14 14 16 19
50 50 40 35 29 26 29 34 30 27 26 30 28 26 28 40 48 48 52 52 47 39 36 23 17 19 19 16 15 17 15 19
45 47 40 35 30 27 28 34 30 23 26 31 26 21 26 38 50 52 57 49 48 36 35 26 20 16 23 16 14 13 14 18
48 49 42 34 33 26 26 31 26 22 25 25 22 21 26 38 52 56 58 45 49 34 34 27 24 24 28 17 13 19 19 24
50 45 40 35 32 26 26 24 23 18 24 23 21 16 19 42 55 57 55 47 48 31 29 23 26 29 21 19 19 16 18 22
46 41 40 35 30 26 27 24 22 20 26 20 14 8 14 46 55 56 47 44 43 37 28 32 34 29 20 18 18 17 18 23
46 41 41 34 30 25 27 21 21 21 26 17 16 8 11 45 52 52 49 40 35 33 28 31 26 26 27 20 20 26 28 26
43 44 41 32 30 24 25 18 19 22 24 20 21 15 18 44 42 44 44 38 33 35 36 39 30 28 30 32 27 26 25 32
42 40 38 31 30 25 25 18 18 22 25 26 28 24 19 33 41 45 40 37 32 37 39 39 42 41 39 32 37 35 42 41
43 40 39 30 32 26 25 17 17 19 29 30 34 32 30 34 38 36 37 38 47 40 42 42 46 45 46 44 40 43 45 42
40 41 38 31 33 26 25 16 15 13 29 34 36 34 40 41 39 38 35 41 48 49 48 48 49 48 47 49 51 52 50 47
42 38 38 33 34 28 24 14 9 11 28 35 34 39 35 40 44 44 46 51 51 54 51 51 52 52 56 56 54 54 51 51
41 40 39 37 36 30 25 16 6 4 10 31 37 42 37 39 42 43 46 50 53 54 56 58 56 54 53 52 56 56 45 46
43 40 43 42 40 35 30 21 14 10 4 13 31 38 41 46 45 49 50 48 49 48 53 54 48 51 52 49 47 46 47 46
42 42 47 46 44 38 34 27 21 17 11 9 13 19 29 40 45 45 45 46 46 48 52 54 56 54 50 49 50 52 53 53

GFSFLT2_250_spd_096.txt.gz
Wind_Speed
44 41 34 33 36 37 30 32 35 36 33 32 37 42 41 35 34 42 44 46 41 37 29 38 40 39 40 38 27 28 28 26
46 44 36 34 38 40 32 28 32 36 34 34 34 33 36 38 41 40 47 51 50 42 35 34 40 41 34 25 25 21 18 15
49 43 38 36 42 39 33 26 29 34 36 32 31 40 41 41 38 41 43 51 52 46 36 39 36 30 31 22 21 21 19 17
49 44 39 36 41 38 33 26 28 31 32 29 27 30 37 39 42 41 42 43 50 49 41 44 43 32 31 31 28 27 20 20
50 48 38 39 43 40 35 28 29 30 31 31 28 27 32 37 37 42 43 44 47 51 46 46 40 36 31 30 29 24 17 12
48 47 41 40 42 43 37 29 28 30 32 32 30 27 24 31 36 36 44 47 45 53 51 48 39 39 34 31 19 23 18 12
50 45 44 43 46 45 38 29 27 29 31 32 29 26 21 25 33 38 45 46 43 50 53 51 43 40 33 32 22 18 18 17
49 46 47 45 48 40 37 29 25 29 30 29 27 25 23 26 30 39 45 42 50 52 50 50 50 35 37 30 28 25 16 15
48 48 47 48 48 38 38 29 25 27 30 25 25 27 22 23 31 34 48 47 49 50 55 49 47 34 32 30 27 24 20 17
47 50 47 48 47 37 40 30 26 27 28 25 27 26 22 26 29 34 53 57 47 49 49 46 44 39 25 28 28 26 23 21
49 51 49 50 42 37 41 30 27 26 27 25 25 28 26 28 28 36 55 60 50 53 40 46 38 30 29 32 33 26 24 20
50 53 54 53 46 41 37 29 27 23 25 25 27 26 23 20 26 38 58 58 52 53 49 39 34 36 29 36 30 24 22 23
55 56 53 50 44 38 32 29 28 24 23 25 28 24 21 12 23 34 53 51 49 51 54 39 30 33 37 38 30 25 25 26
60 57 53 49 41 36 31 28 29 26 22 23 27 24 20 16 23 36 50 48 45 42 48 44 32 33 35 37 31 31 38 40
59 53 52 47 41 38 30 29 30 24 21 24 26 26 18 22 30 40 40 44 42 38 39 38 38 38 39 38 38 40 43 45
52 49 49 44 43 37 29 30 30 23 20 25 26 28 24 18 33 37 36 36 39 38 37 36 39 41 43 43 44 47 47 51
47 46 47 44 42 36 29 32 30 20 18 22 32 31 35 35 36 35 37 35 34 40 41 44 43 51 55 56 50 51 53 54
45 47 47 42 46 36 31 34 31 19 15 17 35 34 37 43 45 45 41 44 48 42 43 48 59 58 54 57 58 54 58 57
48 49 48 41 45 38 35 37 32 21 14 10 29 41 36 43 44 51 50 49 49 51 54 55 54 57 58 63 58 58 58 53
51 51 50 45 46 41 40 41 36 28 22 14 15 33 41 43 44 46 50 53 54 55 61 60 59 57 61 62 57 55 53 56

GFSFLT2_250_spd_099.txt.gz
Wind_Speed
51 49 48 45 42 40 41 41 45 45 40 32 29 32 30 35 34 33 43 41 41 38 31 26 27 29 34 33 35 35 28 31
50 51 48 46 43 43 43 41 41 42 38 29 31 32 30 33 40 36 32 47 47 44 41 35 33 33 35 38 35 35 30 31
50 49 48 46 46 45 41 38 37 36 35 26 26 28 32 34 38 36 35 39 52 52 46 42 37 39 36 36 34 29 23 27
48 50 50 48 49 44 39 38 39 34 33 33 27 27 28 36 43 45 36 39 48 57 52 50 40 32 36 29 23 22 23 26
46 49 51 49 49 43 40 40 39 34 32 35 31 26 28 31 38 45 41 38 40 59 54 54 48 43 38 35 27 27 30 30
47 49 53 53 46 45 39 38 38 36 30 34 35 29 28 27 35 41 40 40 44 43 57 56 44 45 35 31 31 34 32 27
48 50 54 53 49 48 42 38 38 35 30 34 35 34 28 24 27 27 34 37 46 45 49 51 44 43 36 34 32 26 25 22
54 57 57 54 50 47 44 38 40 34 30 33 36 35 30 21 20 22 30 38 42 46 45 52 51 48 43 34 37 33 24 22
55 57 58 55 52 48 49 38 39 35 31 31 35 34 29 20 23 28 27 39 45 51 45 47 47 55 47 38 37 38 29 25
57 56 52 53 52 53 45 42 42 39 33 31 34 33 33 25 24 25 28 34 45 50 47 49 52 54 52 41 32 32 36 33
55 56 55 56 57 50 45 47 44 38 33 30 33 33 30 30 26 26 31 31 40 51 49 57 49 50 45 45 37 36 38 33
55 54 53 53 53 48 47 50 46 36 33 28 31 32 32 32 28 27 26 34 36 53 58 51 47 48 46 43 37 37 36 34
55 51 50 51 51 54 53 51 48 37 33 28 31 32 31 31 28 25 23 28 34 53 56 50 48 48 47 47 39 38 39 36
60 56 54 55 56 60 58 54 46 37 33 30 31 31 31 30 26 22 33 37 36 58 49 45 49 45 46 39 37 35 42 44
61 57 53 57 55 57 54 49 43 39 35 31 29 31 30 26 24 18 28 32 41 62 47 42 44 46 36 35 33 41 44 37
62 62 58 60 56 55 47 41 42 38 34 31 29 29 29 23 19 23 22 26 46 56 46 50 45 43 43 34 31 38 47 46
65 63 59 59 54 58 49 40 41 37 34 30 28 25 30 23 15 18 22 21 38 37 40 48 47 49 47 40 35 43 45 49
67 66 60 59 61 57 48 39 41 36 35 28 30 25 31 27 20 21 27 30 34 35 38 40 40 40 44 47 50 51 51 51
71 68 60 58 58 53 48 41 41 38 37 29 30 23 35 31 31 29 29 30 31 33 36 41 43 46 51 52 50 53 59 57
69 64 61 58 57 50 48 44 42 37 40 31 29 23 41 33 41 41 40 42 40 43 44 47 47 48 56 59 63 60 64 66

GFSFLT2_250_spd_102.txt.gz
Wind_Speed
51 52 51 49 47 45 42 43 42 43 43 45 45 36 30 25 31 36 39 40 42 41 40 38 31 26 24 24 25 25 24 24
55 52 52 50 48 47 45 41 43 43 42 44 42 32 27 33 29 33 40 40 51 46 43 41 37 33 28 24 25 26 25 24
54 51 50 50 50 47 45 41 44 44 42 45 39 33 29 31 28 36 36 39 41 52 49 47 46 38 35 28 28 29 30 27
54 49 48 48 44 43 45 46 46 44 43 44 32 34 29 28 31 35 39 37 44 44 58 51 53 41 39 33 35 25 24 22
51 46 45 43 42 44 47 48 50 47 45 43 33 35 29 27 31 36 37 40 41 38 51 53 51 45 40 34 26 19 19 18
52 45 51 47 47 47 47 51 49 48 45 42 36 35 32 31 32 36 41 41 39 42 40 56 49 49 43 45 29 24 25 23
49 39 44 45 49 49 51 53 50 53 44 39 35 36 34 31 31 32 38 42 40 39 39 49 58 54 51 40 37 32 29 25
46 43 46 48 50 52 54 55 53 48 46 39 40 38 35 31 29 28 32 31 35 41 41 50 52 58 50 39 32 31 32 26
48 48 50 52 53 53 53 51 50 48 45 42 43 39 36 34 31 26 30 32 33 41 44 47 45 46 47 44 36 29 32 30
40 48 49 50 48 48 51 51 52 45 41 42 44 41 38 36 33 29 29 32 34 38 46 46 49 46 47 45 42 34 31 36
46 52 55 51 50 53 54 52 45 42 39 43 46 43 39 35 33 31 27 29 30 35 45 46 47 45 48 45 45 40 36 38
47 51 54 54 55 55 52 48 49 44 44 48 47 45 40 35 34 34 30 29 31 33 38 49 49 44 46 46 43 41 42 42
52 50 57 57 53 51 51 50 49 50 46 46 52 44 40 36 34 34 30 32 30 28 32 38 51 50 52 47 42 41 44 45
56 52 53 55 54 50 52 50 50 49 44 45 46 41 39 38 34 32 29 31 27 23 23 26 51 53 52 44 39 42 47 46
57 57 54 55 58 54 52 52 52 50 44 45 39 38 38 37 33 29 27 28 26 32 33 37 45 55 48 40 41 45 44 44
61 64 62 58 62 57 55 54 55 52 45 43 38 37 37 36 31 25 27 24 28 35 36 33 45 49 39 42 45 47 47 37
67 66 67 58 62 58 56 56 55 56 45 43 40 36 35 33 25 24 24 25 30 33 37 31 45 45 40 44 50 44 38 30
66 64 67 62 63 60 57 60 59 55 46 44 41 35 35 31 24 25 21 21 19 22 27 38 44 42 42 45 45 41 40 36
70 64 67 64 66 62 62 64 56 54 47 43 41 36 35 30 26 26 19 22 20 17 23 35 35 40 36 44 49 52 46 43
66 68 70 71 75 71 67 64 57 53 48 43 44 38 36 30 29 28 25 27 26 23 25 29 36 43 44 42 42 43 52 49

GFSFLT2_250_spd_105.txt.gz
Wind_Speed
48 47 46 46 42 45 41 37 37 39 40 37 39 41 41 34 25 28 30 39 39 41 44 43 42 27 26 20 22 22 19 18
48 47 47 45 44 43 39 36 37 39 37 39 40 42 44 37 27 31 27 38 43 42 35 44 46 39 33 30 25 21 20 21
47 49 46 45 45 45 43 37 38 35 37 40 43 43 48 40 31 31 34 33 47 53 47 42 48 44 42 38 34 32 19 19
37 43 43 44 44 44 39 37 35 38 41 41 44 47 47 41 35 33 33 34 34 47 49 52 51 46 46 40 37 31 29 26
42 48 49 50 46 40 39 38 37 41 43 45 45 46 45 39 37 33 35 34 40 38 45 51 62 59 47 47 43 35 33 27
40 39 40 45 46 39 38 41 42 43 42 45 43 41 44 35 35 35 36 35 37 40 38 45 51 54 54 52 51 39 32 26
40 40 41 47 46 36 38 38 42 42 45 43 44 41 43 38 35 36 34 34 36 39 42 42 45 42 50 45 45 37 37 26
40 38 41 46 44 38 39 40 45 47 45 45 45 44 38 37 33 36 33 33 35 38 39 41 41 45 43 46 50 41 39 30
45 43 39 42 43 41 42 43 43 43 47 47 41 38 39 36 34 37 33 34 32 36 38 37 41 42 46 54 46 48 42 31
42 43 42 39 35 38 40 40 45 48 46 45 43 39 35 39 39 37 34 35 32 35 38 40 40 43 44 45 47 42 37 31
39 41 42 39 39 41 41 43 44 45 45 41 42 39 40 42 40 36 35 35 32 33 39 39 39 40 46 44 42 44 40 38
41 43 42 42 37 40 42 41 42 41 43 44 39 40 41 44 40 36 36 35 33 34 35 34 37 39 44 49 44 41 42 41
44 44 42 46 37 40 41 42 41 43 43 43 41 43 39 43 40 36 37 35 34 32 33 30 35 39 44 46 49 48 41 46
49 45 45 51 47 41 41 43 44 46 43 44 44 45 43 42 39 35 37 36 34 30 30 29 26 37 38 46 46 46 43 40
50 49 52 53 54 48 47 48 49 50 48 48 46 45 47 40 38 35 37 35 35 29 31 30 26 26 21 45 48 46 45 39
59 55 56 57 57 53 49 51 52 53 51 51 49 48 50 39 35 36 34 31 31 28 29 30 25 26 28 31 50 51 46 37
64 61 61 58 55 59 55 52 55 55 53 53 52 53 49 40 34 36 33 29 27 27 29 26 38 33 29 33 45 50 50 38
66 66 63 58 54 65 61 52 56 57 52 57 59 56 49 41 33 34 32 29 27 25 28 33 37 38 30 36 45 44 44 42
59 62 62 55 57 65 66 59 56 58 54 59 59 55 48 40 33 33 31 29 26 23 26 26 31 29 29 40 43 43 43 46
59 56 57 54 59 69 70 61 55 57 60 63 61 58 49 40 34 32 31 29 29 25 26 20 26 30 39 44 43 43 45 48

GFSFLT2_250_spd_108.txt.gz
Wind_Speed
33 32 36 41 42 38 38 36 34 29 28 29 31 30 32 36 37 42 32 31 31 36 39 47 45 34 29 28 28 34 28 26
40 39 41 37 39 37 38 37 35 31 34 30 29 30 34 36 37 44 36 31 33 36 40 41 45 44 36 33 32 29 30 23
38 36 41 40 40 41 41 39 35 34 29 29 31 32 35 38 39 43 40 35 36 36 41 40 46 48 48 42 39 37 35 34
35 33 35 28 25 30 34 32 36 34 30 30 33 35 36 38 39 41 40 38 35 39 41 46 41 45 44 45 43 39 36 32
35 31 32 36 37 42 42 39 32 33 32 32 35 37 37 36 38 41 40 39 37 37 40 39 44 51 49 46 47 44 41 34
38 33 34 37 34 34 33 35 33 35 33 32 33 36 38 37 40 42 36 38 39 35 43 44 41 44 52 51 45 50 48 39
40 35 31 37 37 36 39 37 33 35 32 31 34 38 36 39 39 36 32 33 36 35 33 39 40 39 44 47 48 46 50 49
37 42 37 35 36 38 39 38 34 36 33 34 36 33 37 35 37 34 33 32 34 33 32 33 36 39 38 41 48 38 41 47
42 39 40 40 36 36 34 33 34 35 35 34 36 36 34 35 35 34 34 36 34 32 32 31 34 36 35 37 43 37 40 42
48 40 39 39 42 40 37 32 30 28 31 32 34 32 32 34 34 35 36 36 36 33 32 31 33 36 36 33 39 41 45 45
56 46 37 38 37 37 35 34 32 31 30 31 31 28 33 33 34 38 38 37 36 32 33 31 31 34 36 36 36 42 44 45
53 48 44 36 35 34 34 32 31 30 30 30 28 27 32 34 36 39 39 40 36 32 33 32 32 36 38 37 33 40 43 46
54 51 46 42 40 37 31 32 30 32 34 33 29 30 35 37 41 38 43 39 36 33 33 31 33 35 37 36 35 38 41 45
55 55 50 45 42 42 37 35 35 37 41 39 38 36 37 36 39 40 43 39 34 33 34 31 33 32 34 32 34 35 43 45
52 55 54 52 51 47 42 40 40 42 44 41 41 41 41 40 42 44 46 40 33 33 33 30 29 28 34 32 33 31 43 50
54 58 60 58 54 51 49 46 46 47 44 43 44 45 45 43 44 46 48 41 33 32 29 28 28 31 26 31 27 32 41 46
53 56 60 61 58 53 52 54 53 47 48 47 47 48 47 46 45 47 49 43 33 31 27 25 29 26 29 28 31 31 30 44
54 56 61 62 61 60 57 53 51 47 50 52 48 50 50 48 47 49 48 43 33 30 28 27 29 35 31 31 32 32 29 42
55 56 57 55 59 60 61 59 59 54 53 53 51 55 51 48 48 50 49 43 33 31 27 27 31 32 35 36 37 36 32 42
61 57 53 55 55 58 63 63 60 54 51 54 57 59 54 48 49 50 46 41 34 32 29 28 33 34 31 32 35 35 32 44

GFSFLT2_250_spd_111.txt.gz
Wind_Speed
30 33 32 36 35 34 35 37 31 32 32 30 30 30 27 25 26 28 32 35 35 28 27 29 35 37 32 36 31 30 32 31
26 32 31 38 39 39 36 33 34 33 32 31 31 29 27 26 29 31 34 37 36 31 27 29 30 41 41 37 29 28 29 29
32 35 28 34 38 36 36 35 33 35 33 29 30 28 28 28 30 34 35 36 37 35 29 29 34 28 44 45 41 37 35 31
38 39 31 32 36 33 29 26 25 26 25 29 28 28 29 29 33 35 38 37 40 35 32 29 29 36 32 41 45 42 41 39
47 42 33 32 34 33 29 31 33 34 27 27 28 28 30 30 33 37 36 38 37 35 34 32 29 32 37 29 41 42 47 40
52 47 37 35 35 35 36 31 27 27 26 28 29 28 28 29 34 33 37 35 36 36 37 35 30 31 38 37 34 45 44 46
57 49 45 39 37 37 37 35 30 30 33 28 28 27 28 31 29 32 32 34 36 37 36 37 33 28 33 40 37 35 41 45
58 52 49 43 41 39 36 37 33 31 32 31 29 29 30 27 29 27 31 30 33 36 34 37 35 27 27 31 34 35 35 43
57 55 49 47 44 39 39 38 37 29 26 27 30 31 31 28 28 25 30 28 32 34 36 36 34 29 27 27 31 33 36 40
66 59 55 48 46 40 39 42 41 34 28 28 28 28 26 27 24 26 31 32 32 34 36 35 31 29 28 28 28 29 36 35
69 62 58 53 47 43 40 42 45 44 37 29 26 24 21 22 22 27 31 33 34 36 35 35 32 28 28 29 29 28 29 35
74 60 59 57 50 48 45 40 40 38 34 31 28 23 18 18 22 26 27 29 34 37 35 34 33 29 28 31 31 31 29 36
74 61 58 57 53 50 48 45 36 34 33 32 30 29 25 24 25 27 29 32 35 38 38 35 31 29 29 33 33 35 34 31
73 68 59 56 55 52 46 46 42 35 35 34 31 30 31 30 28 29 31 33 34 37 39 34 32 30 29 32 34 33 34 33
71 70 61 56 56 53 51 47 44 40 40 37 36 34 34 35 32 32 34 36 35 37 41 35 32 31 29 30 29 30 32 31
69 73 65 59 56 57 57 56 49 48 43 42 39 40 40 39 35 35 36 36 36 38 43 37 32 29 28 28 27 31 35 38
72 76 68 60 59 60 62 60 54 52 46 45 46 46 43 42 40 38 39 40 39 40 42 37 32 27 27 26 28 26 29 32
73 76 69 64 59 58 62 64 60 57 52 43 47 47 47 43 42 40 44 42 40 41 41 37 33 29 27 30 27 31 34 33
70 74 70 67 63 61 62 63 62 62 59 53 44 44 45 45 44 42 44 45 40 42 40 38 34 30 27 30 31 35 39 38
70 76 75 70 67 63 62 61 63 63 63 61 57 54 52 52 48 45 43 43 41 42 40 38 34 33 31 31 35 33 35 42

GFSFLT2_250_spd_114.txt.gz
Wind_Speed
49 43 37 35 38 40 36 35 33 34 39 37 37 32 31 34 32 29 25 21 22 26 29 28 26 27 29 28 30 31 30 30
48 46 34 36 31 37 41 37 36 32 34 38 40 37 32 33 31 30 25 23 24 26 29 33 28 25 29 28 27 27 25 24
51 48 39 39 31 33 36 34 33 32 33 34 36 36 32 31 29 28 27 25 26 26 30 31 28 24 26 30 28 33 31 29
53 52 46 41 39 32 34 35 34 30 25 25 26 25 28 29 27 27 27 26 30 27 29 31 29 26 26 26 26 30 36 36
61 53 50 47 45 35 36 31 32 28 29 28 28 28 27 25 27 27 26 28 28 28 27 31 32 29 28 27 28 29 31 36
66 59 55 51 47 41 37 35 30 37 34 29 25 24 26 28 27 24 26 26 28 28 27 30 31 30 28 27 28 33 28 34
70 65 60 56 50 45 42 41 33 33 38 31 27 29 27 27 26 26 25 26 26 25 24 28 31 32 30 28 27 32 35 30
73 70 66 63 56 52 44 45 38 35 36 34 31 29 29 27 26 28 23 24 23 23 26 25 30 31 30 29 26 27 32 33
69 70 69 65 57 54 47 45 43 39 34 36 34 30 30 30 27 26 25 23 22 22 24 24 29 29 28 28 26 25 27 32
65 71 72 67 62 55 51 47 43 41 38 37 37 32 29 30 31 27 25 23 22 25 25 25 27 27 26 27 27 24 23 30
65 68 72 68 62 57 54 48 45 43 39 43 38 37 34 32 29 25 22 20 21 22 25 24 28 28 26 25 27 27 23 26
69 67 73 68 65 60 58 53 50 46 40 40 43 42 38 33 29 23 21 21 20 21 23 25 28 30 28 24 28 29 29 23
66 65 67 70 69 64 61 56 52 48 44 37 41 40 41 38 28 25 24 23 23 24 26 27 28 31 31 26 28 30 34 32
69 64 70 67 72 66 62 59 52 51 48 42 40 41 40 35 34 30 25 25 27 28 28 29 30 33 33 28 28 32 35 34
71 65 72 67 71 68 63 60 53 51 51 48 41 38 38 38 37 33 30 30 29 30 30 33 33 35 35 28 28 33 33 33
75 67 73 68 67 70 68 64 58 55 53 48 43 40 39 37 38 34 31 31 34 33 33 34 35 36 37 31 28 31 31 30
77 73 73 74 71 69 70 68 65 60 57 52 47 44 43 37 39 38 36 34 36 37 38 36 37 36 38 33 29 31 28 25
77 76 74 78 73 73 71 72 68 65 61 57 54 52 48 43 42 41 40 39 38 38 38 38 35 35 37 34 30 32 28 25
75 78 77 77 76 75 72 72 70 67 63 60 58 56 51 52 46 43 42 41 38 38 41 36 34 35 36 36 30 32 31 30
76 78 76 78 77 77 74 73 72 68 64 64 61 61 54 50 51 49 41 45 44 44 41 35 34 38 37 34 31 31 34 31

GFSFLT2_250_spd_117.txt.gz
Wind_Speed
49 50 49 42 37 38 35 36 36 36 37 34 37 37 36 37 36 33 34 36 33 31 29 22 22 27 25 27 25 18 25 24
51 50 48 43 36 36 35 35 33 35 38 37 37 36 36 34 31 36 34 34 34 30 29 22 22 26 25 23 22 18 24 21
52 51 46 44 37 35 36 35 34 32 35 36 37 36 37 39 37 33 35 31 30 29 28 25 23 28 26 20 19 18 24 24
54 57 53 51 45 40 38 37 38 33 33 35 33 32 33 35 31 29 28 29 28 27 28 26 25 28 27 23 21 18 22 27
60 60 62 57 51 46 42 36 39 39 31 32 30 31 29 27 29 26 28 27 28 28 26 26 24 28 29 24 22 21 23 28
66 62 62 65 61 51 46 41 37 40 37 29 35 35 36 32 27 25 25 24 25 27 24 25 24 25 28 26 22 23 23 32
72 66 65 68 63 59 54 47 43 43 40 37 33 39 39 30 30 27 25 24 26 26 22 22 24 25 28 28 26 23 23 30
78 73 68 70 63 59 56 55 49 47 45 41 35 36 40 38 29 28 27 26 26 24 21 20 23 23 30 29 27 23 24 28
76 75 66 67 64 61 55 55 53 49 47 44 40 36 38 39 33 33 30 29 27 23 23 21 25 26 29 28 27 24 23 26
72 72 69 68 65 63 51 53 54 54 48 47 42 37 36 41 34 34 30 34 30 26 22 21 20 23 25 28 26 24 22 24
74 73 73 68 67 65 53 51 56 57 51 49 45 40 37 40 37 35 37 36 32 28 23 19 16 21 24 27 26 25 25 26
75 71 73 72 67 61 54 50 59 63 55 51 48 42 40 40 39 38 41 36 31 26 22 18 22 22 22 25 28 27 28 28
76 71 69 74 71 66 58 53 54 61 57 55 48 47 43 40 40 41 38 34 32 26 24 22 24 24 24 25 28 29 29 29
82 71 67 69 75 69 60 52 54 57 59 58 53 50 45 43 41 43 42 40 33 26 25 25 24 22 27 27 29 31 29 30
89 76 66 65 67 65 56 53 55 59 63 65 60 52 48 45 41 40 42 43 37 32 30 30 26 24 25 27 29 33 30 31
89 83 71 68 67 62 60 56 59 61 66 65 63 55 51 46 42 41 42 43 41 33 30 32 33 31 26 27 28 31 34 33
94 83 75 68 72 61 64 61 61 62 65 66 64 58 53 48 44 42 43 42 38 35 31 31 35 35 30 28 29 29 34 33
94 85 79 73 71 70 70 68 68 65 66 67 65 60 54 50 49 43 42 41 39 39 35 35 36 35 34 28 29 30 32 32
94 88 83 79 76 75 74 73 71 68 69 68 64 62 57 57 54 49 49 47 45 43 40 37 36 35 35 31 30 32 30 30
96 91 87 84 82 78 74 72 75 71 69 69 67 62 60 59 59 55 54 53 48 46 41 40 37 38 38 35 34 33 31 32

GFSFLT2_250_spd_123.txt.gz
Wind_Speed
54 53 57 55 50 46 45 44 41 39 36 39 35 33 29 32 31 33 31 37 39 38 39 36 33 31 32 31 27 18 17 15
60 59 61 60 56 52 48 46 46 43 37 36 36 34 31 32 32 33 34 36 41 40 40 40 33 34 30 28 24 22 17 17
65 66 65 61 58 56 55 49 49 48 40 34 30 32 32 31 32 34 35 37 38 41 40 34 36 30 28 27 23 19 17 18
62 64 64 63 62 59 54 54 49 43 41 38 37 34 34 34 33 34 36 35 37 37 40 37 31 28 26 27 25 17 18 18
64 64 64 62 63 60 59 54 48 43 43 42 41 36 34 32 34 34 35 30 30 30 29 32 31 29 28 27 22 20 21 18
69 71 72 68 65 61 59 55 51 48 46 46 43 43 38 36 35 36 34 32 33 31 30 31 33 27 27 27 25 23 23 20
74 71 70 69 67 66 60 59 58 55 50 45 43 42 41 41 38 37 36 37 38 37 31 30 31 28 28 28 28 24 25 20
81 76 74 73 72 69 67 67 64 59 53 51 47 45 45 44 43 40 39 37 38 38 34 31 31 32 30 30 29 26 25 22
87 81 78 77 76 72 68 66 66 63 55 52 50 47 47 45 46 45 40 42 39 38 36 30 31 33 32 30 30 28 27 23
90 88 84 80 79 74 69 64 66 66 60 55 55 49 41 46 46 47 45 43 43 39 40 36 33 34 34 31 31 30 26 24
93 90 87 86 83 81 73 67 67 65 63 61 61 52 50 47 48 47 48 45 44 42 39 40 37 35 36 34 31 31 24 23
102 96 93 89 87 84 79 73 71 71 65 63 64 66 55 48 49 47 47 49 45 43 42 41 36 38 39 37 35 33 25 23
113 106 103 95 92 90 85 74 74 71 70 69 69 65 56 49 48 48 45 51 48 45 45 44 36 39 42 40 38 36 31 30
116 114 106 103 98 95 87 80 78 78 75 75 69 63 56 50 46 47 46 48 51 47 47 44 42 40 42 43 40 38 33 29
114 119 113 112 104 102 95 90 84 77 75 73 67 66 67 55 47 43 50 47 50 51 49 45 42 42 41 40 41 38 36 31
102 118 113 116 110 105 99 91 82 74 74 78 76 69 71 57 42 45 49 50 49 55 48 47 42 45 47 44 45 43 38 36
88 106 115 109 110 105 99 92 84 81 86 84 77 73 69 64 45 44 50 48 48 53 50 46 43 44 49 48 48 46 41 40
72 88 109 100 102 100 99 93 83 86 86 84 77 72 66 68 50 47 47 53 49 52 50 46 45 44 49 47 50 47 46 42
58 69 87 92 92 97 87 86 79 82 77 75 82 62 65 60 53 52 49 51 53 51 50 50 48 46 49 51 47 48 44 40
49 59 66 78 87 90 83 85 77 66 47 35 90 86 75 66 56 60 54 49 54 52 50 52 52 48 48 48 48 48 47 43